| time (UTC) | temp F | wind direction | speed MPH | gust MPH | rain 1hr in | rain 24hr in | rain mn in | humidity % | barometer mb |
| 20260503013425 | 55 | 326 | 3.0 | 12.0 | 0.00 | 0.00 | 0.00 | 52 | 1013.3 |
| 20260503013343 | 55 | 333 | 4.0 | 12.0 | 0.00 | 0.00 | 0.00 | 53 | 1013.3 |
| 20260503013234 | 55 | 337 | 6.0 | 12.0 | 0.00 | 0.00 | 0.00 | 52 | 1013.3 |
| 20260503013147 | 55 | 326 | 7.0 | 12.0 | 0.00 | 0.00 | 0.00 | 52 | 1013.3 |
| 20260503013024 | 55 | 329 | 4.0 | 12.0 | 0.00 | 0.00 | 0.00 | 51 | 1013.3 |
| 20260503012943 | 55 | 333 | 5.0 | 12.0 | 0.00 | 0.00 | 0.00 | 53 | 1013.3 |
| 20260503012841 | 55 | 323 | 5.0 | 12.0 | 0.00 | 0.00 | 0.00 | 53 | 1013.1 |
| 20260503012739 | 55 | 323 | 6.0 | 12.0 | 0.00 | 0.00 | 0.00 | 52 | 1013.1 |
| 20260503012638 | 55 | 337 | 5.0 | 12.0 | 0.00 | 0.00 | 0.00 | 51 | 1013.1 |
| 20260503012558 | 55 | 333 | 4.0 | 12.0 | 0.00 | 0.00 | 0.00 | 51 | 1013.1 |
| 20260503012435 | 55 | 335 | 5.0 | 12.0 | 0.00 | 0.00 | 0.00 | 52 | 1013.1 |
| 20260503012337 | 55 | 335 | 7.0 | 12.0 | 0.00 | 0.00 | 0.00 | 51 | 1013.1 |
| 20260503012235 | 55 | 340 | 6.0 | 10.0 | 0.00 | 0.00 | 0.00 | 50 | 1013.1 |
| 20260503012154 | 55 | 318 | 5.0 | 11.0 | 0.00 | 0.00 | 0.00 | 52 | 1013.1 |
| 20260503012032 | 55 | 335 | 3.0 | 11.0 | 0.00 | 0.00 | 0.00 | 51 | 1013.1 |
| 20260503011931 | 55 | 337 | 2.0 | 11.0 | 0.00 | 0.00 | 0.00 | 52 | 1013.1 |
| 20260503011851 | 55 | 332 | 4.0 | 11.0 | 0.00 | 0.00 | 0.00 | 52 | 1013.1 |
| 20260503011730 | 55 | 346 | 6.0 | 11.0 | 0.00 | 0.00 | 0.00 | 51 | 1013.1 |
| 20260503011700 | 55 | 335 | 7.0 | 11.0 | 0.00 | 0.00 | 0.00 | 52 | 1013.1 |
| 20260503011541 | 55 | 322 | 6.0 | 11.0 | 0.00 | 0.00 | 0.00 | 51 | 1013.1 |
| 20260503011440 | 56 | 330 | 7.0 | 11.0 | 0.00 | 0.00 | 0.00 | 50 | 1013.1 |
| 20260503011357 | 56 | 335 | 7.0 | 11.0 | 0.00 | 0.00 | 0.00 | 51 | 1013.1 |
| 20260503011235 | 56 | 330 | 4.0 | 11.0 | 0.00 | 0.00 | 0.00 | 51 | 1013.1 |
| 20260503011135 | 56 | 329 | 3.0 | 11.0 | 0.00 | 0.00 | 0.00 | 51 | 1013.1 |
| 20260503011033 | 56 | 339 | 4.0 | 11.0 | 0.00 | 0.00 | 0.00 | 51 | 1013.1 |
| 20260503010932 | 56 | 342 | 3.0 | 11.0 | 0.00 | 0.00 | 0.00 | 51 | 1013.1 |
| 20260503010835 | 56 | 342 | 3.0 | 11.0 | 0.00 | 0.00 | 0.00 | 50 | 1013.1 |
| 20260503010732 | 56 | 343 | 8.0 | 11.0 | 0.00 | 0.00 | 0.00 | 51 | 1013.1 |
| 20260503010631 | 56 | 335 | 7.0 | 11.0 | 0.00 | 0.00 | 0.00 | 51 | 1013.1 |
| 20260503010529 | 56 | 352 | 5.0 | 10.0 | 0.00 | 0.00 | 0.00 | 51 | 1013.1 |
| 20260503010428 | 56 | 326 | 4.0 | 10.0 | 0.00 | 0.00 | 0.00 | 50 | 1013.1 |
| 20260503010327 | 56 | 332 | 5.0 | 10.0 | 0.00 | 0.00 | 0.00 | 49 | 1013.1 |
| 20260503010231 | 56 | 357 | 4.0 | 10.0 | 0.00 | 0.00 | 0.00 | 50 | 1013.1 |
| 20260503010202 | 56 | 333 | 4.0 | 10.0 | 0.00 | 0.00 | 0.00 | 49 | 1013.1 |
| 20260503010040 | 57 | 349 | 4.0 | 10.0 | 0.00 | 0.00 | 0.00 | 49 | 1013.1 |
| 20260503005938 | 57 | 330 | 5.0 | 10.0 | 0.00 | 0.00 | 0.00 | 49 | 1013.1 |
| 20260503005837 | 57 | 335 | 6.0 | 13.0 | 0.00 | 0.00 | 0.00 | 49 | 1013.1 |
| 20260503005737 | 57 | 337 | 6.0 | 13.0 | 0.00 | 0.00 | 0.00 | 48 | 1013.1 |
| 20260503005638 | 57 | 339 | 6.0 | 13.0 | 0.00 | 0.00 | 0.00 | 48 | 1013.1 |
| 20260503005541 | 57 | 335 | 6.0 | 18.0 | 0.00 | 0.00 | 0.00 | 49 | 1013.1 |
| 20260503005439 | 57 | 114 | 6.0 | 18.0 | 0.00 | 0.00 | 0.00 | 49 | 1013.1 |
| 20260503005336 | 57 | 337 | 7.0 | 18.0 | 0.00 | 0.00 | 0.00 | 48 | 1013.1 |
| 20260503005236 | 57 | 354 | 6.0 | 18.0 | 0.00 | 0.00 | 0.00 | 48 | 1013.1 |
| 20260503005135 | 57 | 330 | 3.0 | 18.0 | 0.00 | 0.00 | 0.00 | 48 | 1013.1 |
| 20260503005033 | 57 | 54 | 8.0 | 18.0 | 0.00 | 0.00 | 0.00 | 48 | 1013.1 |
| 20260503004952 | 57 | 329 | 5.0 | 18.0 | 0.00 | 0.00 | 0.00 | 48 | 1013.1 |
| 20260503004832 | 57 | 330 | 10.0 | 18.0 | 0.00 | 0.00 | 0.00 | 48 | 1013.1 |
| 20260503004755 | 57 | 332 | 12.0 | 18.0 | 0.00 | 0.00 | 0.00 | 48 | 1013.1 |
| 20260503004703 | 57 | 354 | 12.0 | 18.0 | 0.00 | 0.00 | 0.00 | 48 | 1013.1 |
| 20260503004540 | 57 | 350 | 11.0 | 16.0 | 0.00 | 0.00 | 0.00 | 47 | 1013.1 |
| 20260503004438 | 57 | 158 | 9.0 | 16.0 | 0.00 | 0.00 | 0.00 | 47 | 1013.1 |
| 20260503004337 | 57 | 333 | 7.0 | 14.0 | 0.00 | 0.00 | 0.00 | 47 | 1012.8 |
| 20260503004239 | 57 | 346 | 8.0 | 14.0 | 0.00 | 0.00 | 0.00 | 47 | 1012.8 |
| 20260503004137 | 57 | 329 | 9.0 | 14.0 | 0.00 | 0.00 | 0.00 | 47 | 1012.8 |
| 20260503004043 | 57 | 342 | 7.0 | 14.0 | 0.00 | 0.00 | 0.00 | 47 | 1012.8 |
| 20260503003940 | 57 | 288 | 6.0 | 13.0 | 0.00 | 0.00 | 0.00 | 47 | 1012.8 |
| 20260503003838 | 57 | 353 | 5.0 | 13.0 | 0.00 | 0.00 | 0.00 | 47 | 1012.8 |
| 20260503003737 | 57 | 335 | 4.0 | 13.0 | 0.00 | 0.00 | 0.00 | 47 | 1012.8 |
| 20260503003634 | 57 | 335 | 6.0 | 13.0 | 0.00 | 0.00 | 0.00 | 47 | 1012.8 |
| 20260503003535 | 57 | 326 | 7.0 | 13.0 | 0.00 | 0.00 | 0.00 | 46 | 1012.8 |
| 20260503003454 | 57 | 326 | 9.0 | 13.0 | 0.00 | 0.00 | 0.00 | 47 | 1012.8 |
| 20260503003336 | 57 | 346 | 6.0 | 11.0 | 0.00 | 0.00 | 0.00 | 46 | 1012.8 |
| 20260503003236 | 57 | 326 | 6.0 | 11.0 | 0.00 | 0.00 | 0.00 | 46 | 1012.8 |
| 20260503003206 | 57 | 349 | 5.0 | 11.0 | 0.00 | 0.00 | 0.00 | 47 | 1012.8 |
| 20260503003043 | 57 | 336 | 6.0 | 11.0 | 0.00 | 0.00 | 0.00 | 45 | 1012.8 |
| 20260503002941 | 57 | 346 | 3.0 | 9.0 | 0.00 | 0.00 | 0.00 | 46 | 1012.8 |
| 20260503002840 | 58 | 333 | 3.0 | 9.0 | 0.00 | 0.00 | 0.00 | 45 | 1012.5 |
| 20260503002738 | 58 | 352 | 5.0 | 9.0 | 0.00 | 0.00 | 0.00 | 45 | 1012.5 |
| 20260503002639 | 58 | 332 | 5.0 | 9.0 | 0.00 | 0.00 | 0.00 | 44 | 1012.5 |
| 20260503002539 | 58 | 346 | 5.0 | 9.0 | 0.00 | 0.00 | 0.00 | 46 | 1012.5 |
| 20260503002438 | 58 | 339 | 4.0 | 9.0 | 0.00 | 0.00 | 0.00 | 45 | 1012.5 |
| 20260503002336 | 58 | 340 | 3.0 | 9.0 | 0.00 | 0.00 | 0.00 | 45 | 1012.5 |
| 20260503002234 | 58 | 347 | 5.0 | 11.0 | 0.00 | 0.00 | 0.00 | 45 | 1012.5 |
| 20260503002156 | 58 | 330 | 5.0 | 11.0 | 0.00 | 0.00 | 0.00 | 45 | 1012.5 |
| 20260503002035 | 58 | 340 | 6.0 | 11.0 | 0.00 | 0.00 | 0.00 | 45 | 1012.5 |
| 20260503001953 | 58 | 326 | 4.0 | 11.0 | 0.00 | 0.00 | 0.00 | 44 | 1012.5 |
| 20260503001855 | 58 | 328 | 6.0 | 11.0 | 0.00 | 0.00 | 0.00 | 44 | 1012.5 |
| 20260503001733 | 58 | 332 | 5.0 | 11.0 | 0.00 | 0.00 | 0.00 | 44 | 1012.5 |
| 20260503001704 | 58 | 330 | 5.0 | 12.0 | 0.00 | 0.00 | 0.00 | 44 | 1012.5 |
| 20260503001522 | 58 | 347 | 6.0 | 12.0 | 0.00 | 0.00 | 0.00 | 44 | 1012.5 |
| 20260503001425 | 58 | 332 | 8.0 | 13.0 | 0.00 | 0.00 | 0.00 | 44 | 1012.5 |
| 20260503001343 | 58 | 339 | 6.0 | 13.0 | 0.00 | 0.00 | 0.00 | 43 | 1012.4 |
| 20260503001240 | 58 | 318 | 8.0 | 13.0 | 0.00 | 0.00 | 0.00 | 45 | 1012.4 |
| 20260503001159 | 58 | 330 | 4.0 | 13.0 | 0.00 | 0.00 | 0.00 | 43 | 1012.4 |
| 20260503001040 | 58 | 335 | 6.0 | 13.0 | 0.00 | 0.00 | 0.00 | 42 | 1012.4 |
| 20260503000937 | 58 | 340 | 8.0 | 13.0 | 0.00 | 0.00 | 0.00 | 43 | 1012.4 |
| 20260503000836 | 58 | 336 | 8.0 | 14.0 | 0.00 | 0.00 | 0.00 | 43 | 1012.4 |
| 20260503000733 | 58 | 323 | 5.0 | 14.0 | 0.00 | 0.00 | 0.00 | 43 | 1012.4 |
| 20260503000632 | 58 | 325 | 7.0 | 14.0 | 0.00 | 0.00 | 0.00 | 42 | 1012.4 |
| 20260503000530 | 58 | 316 | 7.0 | 14.0 | 0.00 | 0.00 | 0.00 | 42 | 1012.4 |
| 20260503000449 | 58 | 359 | 7.0 | 14.0 | 0.00 | 0.00 | 0.00 | 44 | 1012.4 |
| 20260503000347 | 58 | 322 | 10.0 | 14.0 | 0.00 | 0.00 | 0.00 | 44 | 1012.4 |
| 20260503000240 | 59 | 312 | 7.0 | 14.0 | 0.00 | 0.00 | 0.00 | 43 | 1012.4 |
| 20260503000149 | 59 | 332 | 3.0 | 14.0 | 0.00 | 0.00 | 0.00 | 44 | 1012.4 |
| 20260503000026 | 59 | 336 | 8.0 | 14.0 | 0.00 | 0.00 | 0.00 | 44 | 1012.4 |
| 20260502235944 | 59 | 315 | 10.0 | 14.0 | 0.00 | 0.00 | 0.00 | 44 | 1012.4 |
| 20260502235902 | 59 | 332 | 6.0 | 11.0 | 0.00 | 0.00 | 0.00 | 42 | 1012.3 |
| 20260502235740 | 59 | 330 | 5.0 | 11.0 | 0.00 | 0.00 | 0.00 | 42 | 1012.3 |
| 20260502235638 | 59 | 323 | 7.0 | 13.0 | 0.00 | 0.00 | 0.00 | 43 | 1012.3 |
| 20260502235538 | 59 | 330 | 7.0 | 13.0 | 0.00 | 0.00 | 0.00 | 43 | 1012.3 |
| 20260502235440 | 59 | 333 | 7.0 | 13.0 | 0.00 | 0.00 | 0.00 | 42 | 1012.3 |
| 20260502235339 | 59 | 325 | 7.0 | 14.0 | 0.00 | 0.00 | 0.00 | 42 | 1012.3 |
| 20260502235238 | 59 | 339 | 5.0 | 14.0 | 0.00 | 0.00 | 0.00 | 44 | 1012.3 |
| 20260502235158 | 59 | 330 | 4.0 | 14.0 | 0.00 | 0.00 | 0.00 | 42 | 1012.3 |
| 20260502235035 | 59 | 305 | 5.0 | 14.0 | 0.00 | 0.00 | 0.00 | 42 | 1012.3 |
| 20260502234934 | 59 | 325 | 5.0 | 14.0 | 0.00 | 0.00 | 0.00 | 42 | 1012.3 |
| 20260502234832 | 59 | 322 | 7.0 | 14.0 | 0.00 | 0.00 | 0.00 | 42 | 1012.3 |
| 20260502234734 | 59 | 339 | 7.0 | 19.0 | 0.00 | 0.00 | 0.00 | 43 | 1012.3 |
| 20260502234703 | 59 | 330 | 6.0 | 19.0 | 0.00 | 0.00 | 0.00 | 41 | 1012.3 |
| 20260502234539 | 59 | 332 | 9.0 | 19.0 | 0.00 | 0.00 | 0.00 | 41 | 1012.3 |
| 20260502234438 | 59 | 313 | 8.0 | 19.0 | 0.00 | 0.00 | 0.00 | 41 | 1012.3 |
| 20260502234334 | 59 | 339 | 5.0 | 19.0 | 0.00 | 0.00 | 0.00 | 41 | 1012.1 |
| 20260502234234 | 59 | 336 | 9.0 | 19.0 | 0.00 | 0.00 | 0.00 | 42 | 1012.1 |
| 20260502234133 | 59 | 325 | 8.0 | 19.0 | 0.00 | 0.00 | 0.00 | 42 | 1012.1 |
| 20260502234051 | 59 | 336 | 7.0 | 19.0 | 0.00 | 0.00 | 0.00 | 42 | 1012.1 |
| 20260502233927 | 59 | 325 | 9.0 | 19.0 | 0.00 | 0.00 | 0.00 | 42 | 1012.1 |
| 20260502233827 | 59 | 332 | 10.0 | 19.0 | 0.00 | 0.00 | 0.00 | 44 | 1012.1 |
| 20260502233725 | 59 | 332 | 8.0 | 16.0 | 0.00 | 0.00 | 0.00 | 42 | 1012.1 |
| 20260502233624 | 59 | 309 | 7.0 | 12.0 | 0.00 | 0.00 | 0.00 | 43 | 1012.1 |
| 20260502233543 | 59 | 312 | 7.0 | 12.0 | 0.00 | 0.00 | 0.00 | 43 | 1012.1 |
| 20260502233501 | 59 | 333 | 5.0 | 12.0 | 0.00 | 0.00 | 0.00 | 41 | 1012.1 |
| 20260502233336 | 59 | 325 | 7.0 | 12.0 | 0.00 | 0.00 | 0.00 | 42 | 1012.1 |
| 20260502233255 | 59 | 326 | 6.0 | 12.0 | 0.00 | 0.00 | 0.00 | 41 | 1012.1 |
| 20260502233204 | 59 | 328 | 5.0 | 12.0 | 0.00 | 0.00 | 0.00 | 42 | 1012.1 |
| 20260502233101 | 59 | 332 | 5.0 | 12.0 | 0.00 | 0.00 | 0.00 | 40 | 1012.1 |
| 20260502232943 | 59 | 332 | 5.0 | 12.0 | 0.00 | 0.00 | 0.00 | 41 | 1012.1 |
| 20260502232841 | 59 | 329 | 6.0 | 12.0 | 0.00 | 0.00 | 0.00 | 41 | 1012.0 |
| 20260502232741 | 59 | 325 | 8.0 | 12.0 | 0.00 | 0.00 | 0.00 | 41 | 1012.0 |
| 20260502232640 | 59 | 335 | 9.0 | 11.0 | 0.00 | 0.00 | 0.00 | 41 | 1012.0 |
| 20260502232558 | 59 | 333 | 7.0 | 12.0 | 0.00 | 0.00 | 0.00 | 42 | 1012.0 |
| 20260502232456 | 59 | 347 | 5.0 | 14.0 | 0.00 | 0.00 | 0.00 | 41 | 1012.0 |
| 20260502232336 | 60 | 322 | 4.0 | 14.0 | 0.00 | 0.00 | 0.00 | 41 | 1012.0 |
| 20260502232255 | 60 | 329 | 5.0 | 14.0 | 0.00 | 0.00 | 0.00 | 43 | 1012.0 |
| 20260502232157 | 60 | 333 | 3.0 | 14.0 | 0.00 | 0.00 | 0.00 | 40 | 1012.0 |
| 20260502232035 | 60 | 320 | 5.0 | 16.0 | 0.00 | 0.00 | 0.00 | 40 | 1012.0 |
| 20260502231935 | 60 | 323 | 2.0 | 16.0 | 0.00 | 0.00 | 0.00 | 40 | 1012.0 |
| 20260502231832 | 60 | 326 | 5.0 | 16.0 | 0.00 | 0.00 | 0.00 | 41 | 1012.0 |
| 20260502231802 | 60 | 333 | 8.0 | 16.0 | 0.00 | 0.00 | 0.00 | 39 | 1012.0 |
| 20260502231649 | 60 | 322 | 9.0 | 16.0 | 0.00 | 0.00 | 0.00 | 40 | 1012.0 |
| 20260502231527 | 60 | 330 | 10.0 | 16.0 | 0.00 | 0.00 | 0.00 | 41 | 1012.0 |
| 20260502231426 | 60 | 322 | 7.0 | 16.0 | 0.00 | 0.00 | 0.00 | 39 | 1012.0 |
| 20260502231328 | 60 | 326 | 7.0 | 16.0 | 0.00 | 0.00 | 0.00 | 39 | 1012.0 |
| 20260502231226 | 60 | 291 | 8.0 | 16.0 | 0.00 | 0.00 | 0.00 | 38 | 1012.0 |
| 20260502231126 | 60 | 332 | 9.0 | 16.0 | 0.00 | 0.00 | 0.00 | 39 | 1012.0 |
| 20260502231043 | 60 | 330 | 5.0 | 16.0 | 0.00 | 0.00 | 0.00 | 39 | 1012.0 |
| 20260502230941 | 60 | 323 | 5.0 | 16.0 | 0.00 | 0.00 | 0.00 | 38 | 1012.0 |
| 20260502230859 | 60 | 306 | 8.0 | 16.0 | 0.00 | 0.00 | 0.00 | 39 | 1012.0 |
| 20260502230735 | 60 | 313 | 7.0 | 16.0 | 0.00 | 0.00 | 0.00 | 41 | 1012.0 |
| 20260502230638 | 60 | 330 | 7.0 | 16.0 | 0.00 | 0.00 | 0.00 | 40 | 1012.0 |
| 20260502230537 | 60 | 322 | 6.0 | 16.0 | 0.00 | 0.00 | 0.00 | 42 | 1012.0 |
| 20260502230436 | 60 | 336 | 9.0 | 16.0 | 0.00 | 0.00 | 0.00 | 42 | 1012.0 |
| 20260502230333 | 60 | 318 | 6.0 | 14.0 | 0.00 | 0.00 | 0.00 | 40 | 1012.0 |
| 20260502230243 | 60 | 316 | 6.0 | 14.0 | 0.00 | 0.00 | 0.00 | 40 | 1012.0 |
| 20260502230152 | 61 | 328 | 7.0 | 14.0 | 0.00 | 0.00 | 0.00 | 42 | 1012.0 |
| 20260502230029 | 61 | 329 | 5.0 | 12.0 | 0.00 | 0.00 | 0.00 | 41 | 1012.0 |
| 20260502225931 | 61 | 344 | 5.0 | 12.0 | 0.00 | 0.00 | 0.00 | 41 | 1012.0 |
| 20260502225830 | 61 | 342 | 4.0 | 12.0 | 0.00 | 0.00 | 0.00 | 42 | 1011.9 |
| 20260502225729 | 61 | 339 | 2.0 | 12.0 | 0.00 | 0.00 | 0.00 | 41 | 1011.9 |
| 20260502225647 | 61 | 330 | 7.0 | 12.0 | 0.00 | 0.00 | 0.00 | 41 | 1011.9 |
| 20260502225524 | 61 | 343 | 3.0 | 12.0 | 0.00 | 0.00 | 0.00 | 41 | 1011.9 |
| 20260502225442 | 61 | 325 | 4.0 | 12.0 | 0.00 | 0.00 | 0.00 | 42 | 1011.9 |
| 20260502225341 | 61 | 325 | 5.0 | 12.0 | 0.00 | 0.00 | 0.00 | 42 | 1011.9 |
| 20260502225141 | 61 | 325 | 8.0 | 12.0 | 0.00 | 0.00 | 0.00 | 41 | 1011.9 |
| 20260502225040 | 61 | 326 | 6.0 | 10.0 | 0.00 | 0.00 | 0.00 | 41 | 1011.9 |
| 20260502224958 | 61 | 349 | 5.0 | 10.0 | 0.00 | 0.00 | 0.00 | 41 | 1011.9 |
| 20260502224919 | 61 | 319 | 5.0 | 10.0 | 0.00 | 0.00 | 0.00 | 40 | 1011.9 |
| 20260502224817 | 61 | 332 | 3.0 | 10.0 | 0.00 | 0.00 | 0.00 | 40 | 1011.9 |
| 20260502224724 | 61 | 325 | 2.0 | 10.0 | 0.00 | 0.00 | 0.00 | 41 | 1011.9 |
| 20260502224540 | 61 | 354 | 2.0 | 13.0 | 0.00 | 0.00 | 0.00 | 40 | 1011.9 |
| 20260502224438 | 61 | 352 | 5.0 | 13.0 | 0.00 | 0.00 | 0.00 | 40 | 1011.9 |
| 20260502224337 | 61 | 24 | 4.0 | 13.0 | 0.00 | 0.00 | 0.00 | 40 | 1011.8 |
| 20260502224239 | 61 | 340 | 1.0 | 13.0 | 0.00 | 0.00 | 0.00 | 40 | 1011.8 |
| 20260502224157 | 61 | 335 | 4.0 | 13.0 | 0.00 | 0.00 | 0.00 | 39 | 1011.8 |
| 20260502224035 | 61 | 347 | 5.0 | 13.0 | 0.00 | 0.00 | 0.00 | 39 | 1011.8 |
| 20260502223932 | 61 | 353 | 6.0 | 13.0 | 0.00 | 0.00 | 0.00 | 40 | 1011.8 |
| 20260502223832 | 61 | 340 | 8.0 | 13.0 | 0.00 | 0.00 | 0.00 | 40 | 1011.8 |
| 20260502223729 | 61 | 328 | 8.0 | 13.0 | 0.00 | 0.00 | 0.00 | 41 | 1011.8 |
| 20260502223628 | 61 | 343 | 6.0 | 13.0 | 0.00 | 0.00 | 0.00 | 42 | 1011.8 |
| 20260502223548 | 61 | 335 | 5.0 | 13.0 | 0.00 | 0.00 | 0.00 | 40 | 1011.8 |
| 20260502223429 | 61 | 305 | 8.0 | 13.0 | 0.00 | 0.00 | 0.00 | 39 | 1011.8 |
| 20260502223329 | 61 | 330 | 7.0 | 13.0 | 0.00 | 0.00 | 0.00 | 40 | 1011.8 |
| 20260502223239 | 61 | 323 | 8.0 | 13.0 | 0.00 | 0.00 | 0.00 | 40 | 1011.8 |
| 20260502223149 | 61 | 333 | 11.0 | 13.0 | 0.00 | 0.00 | 0.00 | 39 | 1011.8 |
| 20260502223028 | 61 | 344 | 4.0 | 13.0 | 0.00 | 0.00 | 0.00 | 40 | 1011.8 |
| 20260502222926 | 61 | 330 | 9.0 | 13.0 | 0.00 | 0.00 | 0.00 | 40 | 1011.8 |
| 20260502222824 | 61 | 113 | 5.0 | 13.0 | 0.00 | 0.00 | 0.00 | 40 | 1011.9 |
| 20260502222727 | 60 | 337 | 6.0 | 13.0 | 0.00 | 0.00 | 0.00 | 40 | 1011.9 |
| 20260502222645 | 60 | 346 | 3.0 | 13.0 | 0.00 | 0.00 | 0.00 | 40 | 1011.9 |
| 20260502222543 | 60 | 353 | 2.0 | 13.0 | 0.00 | 0.00 | 0.00 | 40 | 1011.9 |
| 20260502222440 | 60 | 326 | 4.0 | 13.0 | 0.00 | 0.00 | 0.00 | 38 | 1011.9 |
| 20260502222356 | 60 | 335 | 5.0 | 13.0 | 0.00 | 0.00 | 0.00 | 39 | 1011.9 |
| 20260502222253 | 60 | 353 | 5.0 | 13.0 | 0.00 | 0.00 | 0.00 | 39 | 1011.9 |
| 20260502222130 | 60 | 360 | 5.0 | 11.0 | 0.00 | 0.00 | 0.00 | 38 | 1011.9 |
| 20260502222028 | 60 | 360 | 7.0 | 11.0 | 0.00 | 0.00 | 0.00 | 38 | 1011.9 |
| 20260502221925 | 60 | 329 | 9.0 | 11.0 | 0.00 | 0.00 | 0.00 | 41 | 1011.9 |
| 20260502221827 | 60 | 332 | 3.0 | 10.0 | 0.00 | 0.00 | 0.00 | 39 | 1011.9 |
| 20260502221726 | 60 | 342 | 4.0 | 10.0 | 0.00 | 0.00 | 0.00 | 39 | 1011.9 |
| 20260502221655 | 60 | 44 | 4.0 | 11.0 | 0.00 | 0.00 | 0.00 | 39 | 1011.9 |
| 20260502221534 | 60 | 326 | 4.0 | 12.0 | 0.00 | 0.00 | 0.00 | 38 | 1011.9 |
| 20260502221433 | 60 | 330 | 4.0 | 12.0 | 0.00 | 0.00 | 0.00 | 40 | 1011.9 |
| 20260502221331 | 60 | 333 | 1.0 | 12.0 | 0.00 | 0.00 | 0.00 | 38 | 1011.8 |
| 20260502221229 | 60 | 329 | 1.0 | 12.0 | 0.00 | 0.00 | 0.00 | 38 | 1011.8 |
| 20260502221130 | 60 | 349 | 6.0 | 12.0 | 0.00 | 0.00 | 0.00 | 40 | 1011.8 |
| 20260502221028 | 60 | 329 | 6.0 | 12.0 | 0.00 | 0.00 | 0.00 | 41 | 1011.8 |
| 20260502220947 | 60 | 330 | 4.0 | 12.0 | 0.00 | 0.00 | 0.00 | 41 | 1011.8 |
| 20260502220825 | 60 | 332 | 5.0 | 12.0 | 0.00 | 0.00 | 0.00 | 40 | 1011.8 |
| 20260502220743 | 60 | 335 | 8.0 | 12.0 | 0.00 | 0.00 | 0.00 | 39 | 1011.8 |
| 20260502220642 | 60 | 326 | 8.0 | 12.0 | 0.00 | 0.00 | 0.00 | 40 | 1011.8 |
| 20260502220541 | 60 | 326 | 5.0 | 12.0 | 0.00 | 0.00 | 0.00 | 39 | 1011.8 |
| 20260502220424 | 60 | 328 | 9.0 | 12.0 | 0.00 | 0.00 | 0.00 | 38 | 1011.8 |
| 20260502220343 | 60 | 330 | 11.0 | 12.0 | 0.00 | 0.00 | 0.00 | 41 | 1011.8 |
| 20260502220241 | 60 | 335 | 8.0 | 11.0 | 0.00 | 0.00 | 0.00 | 39 | 1011.8 |
| 20260502220150 | 60 | 325 | 4.0 | 11.0 | 0.00 | 0.00 | 0.00 | 40 | 1011.8 |
| 20260502220026 | 60 | 315 | 6.0 | 12.0 | 0.00 | 0.00 | 0.00 | 39 | 1011.8 |
| 20260502215945 | 60 | 328 | 5.0 | 12.0 | 0.00 | 0.00 | 0.00 | 39 | 1011.8 |
| 20260502215842 | 60 | 325 | 6.0 | 12.0 | 0.00 | 0.00 | 0.00 | 41 | 1011.8 |
| 20260502215740 | 60 | 318 | 5.0 | 12.0 | 0.00 | 0.00 | 0.00 | 40 | 1011.8 |
| 20260502215658 | 60 | 320 | 4.0 | 12.0 | 0.00 | 0.00 | 0.00 | 41 | 1011.8 |
| 20260502215539 | 60 | 326 | 4.0 | 12.0 | 0.00 | 0.00 | 0.00 | 42 | 1011.8 |
| 20260502215437 | 60 | 319 | 2.0 | 12.0 | 0.00 | 0.00 | 0.00 | 41 | 1011.8 |
| 20260502215335 | 60 | 301 | 5.0 | 12.0 | 0.00 | 0.00 | 0.00 | 39 | 1011.8 |
| 20260502215234 | 60 | 343 | 10.0 | 12.0 | 0.00 | 0.00 | 0.00 | 39 | 1011.8 |
| 20260502215135 | 60 | 335 | 6.0 | 12.0 | 0.00 | 0.00 | 0.00 | 39 | 1011.8 |
| 20260502215034 | 60 | 333 | 7.0 | 13.0 | 0.00 | 0.00 | 0.00 | 39 | 1011.8 |
| 20260502214936 | 60 | 340 | 8.0 | 13.0 | 0.00 | 0.00 | 0.00 | 38 | 1011.8 |
| 20260502214834 | 60 | 329 | 9.0 | 13.0 | 0.00 | 0.00 | 0.00 | 40 | 1011.8 |
| 20260502214742 | 60 | 305 | 7.0 | 13.0 | 0.00 | 0.00 | 0.00 | 39 | 1011.8 |
| 20260502214650 | 60 | 332 | 6.0 | 13.0 | 0.00 | 0.00 | 0.00 | 39 | 1011.8 |
| 20260502214528 | 60 | 330 | 5.0 | 13.0 | 0.00 | 0.00 | 0.00 | 39 | 1011.8 |
| 20260502214426 | 60 | 337 | 7.0 | 13.0 | 0.00 | 0.00 | 0.00 | 39 | 1011.8 |
| 20260502214324 | 60 | 332 | 8.0 | 13.0 | 0.00 | 0.00 | 0.00 | 38 | 1011.5 |
| 20260502214226 | 60 | 332 | 9.0 | 13.0 | 0.00 | 0.00 | 0.00 | 38 | 1011.5 |
| 20260502214144 | 61 | 72 | 9.0 | 13.0 | 0.00 | 0.00 | 0.00 | 38 | 1011.5 |
| 20260502214103 | 61 | 354 | 8.0 | 13.0 | 0.00 | 0.00 | 0.00 | 38 | 1011.5 |
| 20260502213940 | 61 | 328 | 7.0 | 13.0 | 0.00 | 0.00 | 0.00 | 38 | 1011.5 |
| 20260502213839 | 61 | 342 | 7.0 | 13.0 | 0.00 | 0.00 | 0.00 | 39 | 1011.5 |
| 20260502213758 | 61 | 332 | 5.0 | 13.0 | 0.00 | 0.00 | 0.00 | 38 | 1011.5 |
| 20260502213635 | 61 | 349 | 8.0 | 13.0 | 0.00 | 0.00 | 0.00 | 40 | 1011.5 |
| 20260502213533 | 61 | 349 | 8.0 | 13.0 | 0.00 | 0.00 | 0.00 | 40 | 1011.5 |
| 20260502213436 | 61 | 343 | 9.0 | 13.0 | 0.00 | 0.00 | 0.00 | 41 | 1011.5 |
| 20260502213355 | 61 | 339 | 7.0 | 13.0 | 0.00 | 0.00 | 0.00 | 40 | 1011.5 |
| 20260502213232 | 61 | 330 | 7.0 | 14.0 | 0.00 | 0.00 | 0.00 | 40 | 1011.5 |
| 20260502213202 | 61 | 342 | 4.0 | 14.0 | 0.00 | 0.00 | 0.00 | 40 | 1011.5 |
| 20260502213038 | 61 | 326 | 4.0 | 14.0 | 0.00 | 0.00 | 0.00 | 40 | 1011.5 |
| 20260502212937 | 61 | 313 | 5.0 | 14.0 | 0.00 | 0.00 | 0.00 | 40 | 1011.5 |
| 20260502212835 | 61 | 329 | 4.0 | 14.0 | 0.00 | 0.00 | 0.00 | 40 | 1011.7 |
| 20260502212734 | 61 | 328 | 5.0 | 17.0 | 0.00 | 0.00 | 0.00 | 39 | 1011.7 |
| 20260502212637 | 61 | 288 | 6.0 | 17.0 | 0.00 | 0.00 | 0.00 | 40 | 1011.7 |
| 20260502212539 | 61 | 323 | 5.0 | 17.0 | 0.00 | 0.00 | 0.00 | 39 | 1011.7 |
| 20260502212437 | 61 | 332 | 8.0 | 17.0 | 0.00 | 0.00 | 0.00 | 40 | 1011.7 |
| 20260502212339 | 61 | 329 | 7.0 | 17.0 | 0.00 | 0.00 | 0.00 | 40 | 1011.7 |
| 20260502212237 | 61 | 320 | 5.0 | 17.0 | 0.00 | 0.00 | 0.00 | 40 | 1011.7 |
| 20260502212134 | 61 | 328 | 8.0 | 17.0 | 0.00 | 0.00 | 0.00 | 39 | 1011.7 |
| 20260502212032 | 61 | 340 | 5.0 | 17.0 | 0.00 | 0.00 | 0.00 | 38 | 1011.7 |
| 20260502211933 | 61 | 336 | 11.0 | 17.0 | 0.00 | 0.00 | 0.00 | 38 | 1011.7 |
| 20260502211833 | 61 | 344 | 7.0 | 14.0 | 0.00 | 0.00 | 0.00 | 40 | 1011.7 |
| 20260502211730 | 61 | 342 | 10.0 | 13.0 | 0.00 | 0.00 | 0.00 | 39 | 1011.7 |
| 20260502211700 | 61 | 339 | 5.0 | 13.0 | 0.00 | 0.00 | 0.00 | 40 | 1011.7 |
| 20260502211537 | 60 | 333 | 3.0 | 14.0 | 0.00 | 0.00 | 0.00 | 38 | 1011.7 |
| 20260502211438 | 60 | 328 | 7.0 | 14.0 | 0.00 | 0.00 | 0.00 | 38 | 1011.7 |
| 20260502211336 | 60 | 347 | 8.0 | 17.0 | 0.00 | 0.00 | 0.00 | 39 | 1011.8 |
| 20260502211239 | 60 | 332 | 4.0 | 17.0 | 0.00 | 0.00 | 0.00 | 40 | 1011.8 |
| 20260502211137 | 60 | 330 | 5.0 | 17.0 | 0.00 | 0.00 | 0.00 | 39 | 1011.8 |
| 20260502211034 | 60 | 322 | 8.0 | 17.0 | 0.00 | 0.00 | 0.00 | 41 | 1011.8 |
| 20260502210932 | 60 | 333 | 8.0 | 17.0 | 0.00 | 0.00 | 0.00 | 39 | 1011.8 |
| 20260502210830 | 60 | 323 | 8.0 | 17.0 | 0.00 | 0.00 | 0.00 | 38 | 1011.8 |
| 20260502210728 | 60 | 318 | 10.0 | 17.0 | 0.00 | 0.00 | 0.00 | 39 | 1011.8 |
| 20260502210631 | 60 | 305 | 9.0 | 17.0 | 0.00 | 0.00 | 0.00 | 40 | 1011.8 |
| 20260502210534 | 60 | 337 | 7.0 | 17.0 | 0.00 | 0.00 | 0.00 | 41 | 1011.8 |
| 20260502210431 | 60 | 357 | 7.0 | 17.0 | 0.00 | 0.00 | 0.00 | 41 | 1011.8 |
| 20260502210349 | 60 | 328 | 5.0 | 17.0 | 0.00 | 0.00 | 0.00 | 42 | 1011.8 |
| 20260502210246 | 60 | 335 | 9.0 | 17.0 | 0.00 | 0.00 | 0.00 | 42 | 1011.8 |
| 20260502210217 | 60 | 335 | 8.0 | 17.0 | 0.00 | 0.00 | 0.00 | 42 | 1011.8 |
| 20260502210052 | 60 | 336 | 5.0 | 17.0 | 0.00 | 0.00 | 0.00 | 40 | 1011.8 |
| 20260502205930 | 60 | 322 | 7.0 | 17.0 | 0.00 | 0.00 | 0.00 | 39 | 1011.8 |
| 20260502205827 | 60 | 335 | 6.0 | 17.0 | 0.00 | 0.00 | 0.00 | 39 | 1011.8 |
| 20260502205730 | 60 | 332 | 10.0 | 17.0 | 0.00 | 0.00 | 0.00 | 41 | 1011.8 |
| 20260502205628 | 60 | 330 | 5.0 | 13.0 | 0.00 | 0.00 | 0.00 | 39 | 1011.8 |
| 20260502205526 | 60 | 347 | 4.0 | 13.0 | 0.00 | 0.00 | 0.00 | 39 | 1011.8 |
| 20260502205426 | 60 | 325 | 3.0 | 14.0 | 0.00 | 0.00 | 0.00 | 40 | 1011.8 |
| 20260502205324 | 60 | 316 | 5.0 | 18.0 | 0.00 | 0.00 | 0.00 | 38 | 1011.8 |
| 20260502205226 | 60 | 339 | 8.0 | 18.0 | 0.00 | 0.00 | 0.00 | 39 | 1011.8 |
| 20260502205128 | 60 | 336 | 5.0 | 18.0 | 0.00 | 0.00 | 0.00 | 39 | 1011.8 |
| 20260502205047 | 60 | 335 | 7.0 | 18.0 | 0.00 | 0.00 | 0.00 | 39 | 1011.8 |
| 20260502205005 | 60 | 344 | 8.0 | 18.0 | 0.00 | 0.00 | 0.00 | 41 | 1011.8 |
| 20260502204842 | 60 | 326 | 6.0 | 18.0 | 0.00 | 0.00 | 0.00 | 39 | 1011.8 |
| 20260502204732 | 60 | 335 | 6.0 | 18.0 | 0.00 | 0.00 | 0.00 | 37 | 1011.8 |
| 20260502204641 | 60 | 335 | 7.0 | 18.0 | 0.00 | 0.00 | 0.00 | 38 | 1011.8 |
| 20260502204544 | 60 | 336 | 7.0 | 18.0 | 0.00 | 0.00 | 0.00 | 37 | 1011.8 |
| 20260502204503 | 60 | 326 | 9.0 | 18.0 | 0.00 | 0.00 | 0.00 | 40 | 1011.8 |
| 20260502204339 | 60 | 336 | 5.0 | 14.0 | 0.00 | 0.00 | 0.00 | 38 | 1011.9 |
| 20260502204242 | 60 | 312 | 6.0 | 14.0 | 0.00 | 0.00 | 0.00 | 39 | 1011.9 |
| 20260502204202 | 60 | 332 | 7.0 | 14.0 | 0.00 | 0.00 | 0.00 | 38 | 1011.9 |
| 20260502204059 | 60 | 325 | 4.0 | 14.0 | 0.00 | 0.00 | 0.00 | 39 | 1011.9 |
| 20260502203935 | 60 | 247 | 8.0 | 14.0 | 0.00 | 0.00 | 0.00 | 40 | 1011.9 |
| 20260502203834 | 60 | 323 | 8.0 | 17.0 | 0.00 | 0.00 | 0.00 | 40 | 1011.9 |
| 20260502203733 | 60 | 311 | 9.0 | 17.0 | 0.00 | 0.00 | 0.00 | 38 | 1011.9 |
| 20260502203632 | 60 | 322 | 9.0 | 17.0 | 0.00 | 0.00 | 0.00 | 39 | 1011.9 |
| 20260502203534 | 60 | 325 | 8.0 | 17.0 | 0.00 | 0.00 | 0.00 | 38 | 1011.9 |
| 20260502203433 | 60 | 343 | 3.0 | 17.0 | 0.00 | 0.00 | 0.00 | 38 | 1011.9 |
| 20260502203331 | 60 | 340 | 2.0 | 17.0 | 0.00 | 0.00 | 0.00 | 39 | 1011.9 |
| 20260502203250 | 60 | 339 | 4.0 | 17.0 | 0.00 | 0.00 | 0.00 | 39 | 1011.9 |
| 20260502203159 | 60 | 325 | 6.0 | 17.0 | 0.00 | 0.00 | 0.00 | 39 | 1011.9 |
| 20260502203036 | 60 | 330 | 9.0 | 17.0 | 0.00 | 0.00 | 0.00 | 40 | 1011.9 |
| 20260502202934 | 60 | 322 | 4.0 | 15.0 | 0.00 | 0.00 | 0.00 | 40 | 1011.9 |
| 20260502202833 | 60 | 315 | 8.0 | 15.0 | 0.00 | 0.00 | 0.00 | 39 | 1011.9 |
| 20260502202735 | 60 | 335 | 10.0 | 14.0 | 0.00 | 0.00 | 0.00 | 39 | 1011.9 |
| 20260502202633 | 60 | 319 | 8.0 | 13.0 | 0.00 | 0.00 | 0.00 | 38 | 1011.9 |
| 20260502202532 | 60 | 330 | 6.0 | 13.0 | 0.00 | 0.00 | 0.00 | 36 | 1011.9 |
| 20260502202430 | 60 | 326 | 7.0 | 13.0 | 0.00 | 0.00 | 0.00 | 37 | 1011.9 |
| 20260502202331 | 60 | 330 | 9.0 | 13.0 | 0.00 | 0.00 | 0.00 | 38 | 1011.9 |
| 20260502202228 | 60 | 323 | 5.0 | 14.0 | 0.00 | 0.00 | 0.00 | 40 | 1011.9 |
| 20260502202133 | 60 | 328 | 5.0 | 14.0 | 0.00 | 0.00 | 0.00 | 38 | 1011.9 |
| 20260502202031 | 60 | 329 | 10.0 | 14.0 | 0.00 | 0.00 | 0.00 | 39 | 1011.9 |
| 20260502201930 | 60 | 339 | 6.0 | 14.0 | 0.00 | 0.00 | 0.00 | 36 | 1011.9 |
| 20260502201828 | 60 | 329 | 9.0 | 14.0 | 0.00 | 0.00 | 0.00 | 39 | 1011.9 |
| 20260502201727 | 60 | 325 | 9.0 | 14.0 | 0.00 | 0.00 | 0.00 | 38 | 1011.9 |
| 20260502201656 | 60 | 329 | 7.0 | 15.0 | 0.00 | 0.00 | 0.00 | 38 | 1011.9 |
| 20260502201534 | 60 | 325 | 8.0 | 16.0 | 0.00 | 0.00 | 0.00 | 36 | 1011.9 |
| 20260502201436 | 60 | 333 | 9.0 | 16.0 | 0.00 | 0.00 | 0.00 | 36 | 1011.9 |
| 20260502201335 | 61 | 333 | 6.0 | 16.0 | 0.00 | 0.00 | 0.00 | 36 | 1011.7 |
| 20260502201234 | 61 | 326 | 8.0 | 16.0 | 0.00 | 0.00 | 0.00 | 36 | 1011.7 |
| 20260502201133 | 61 | 340 | 10.0 | 19.0 | 0.00 | 0.00 | 0.00 | 36 | 1011.7 |
| 20260502201031 | 61 | 339 | 9.0 | 19.0 | 0.00 | 0.00 | 0.00 | 35 | 1011.7 |
| 20260502200929 | 61 | 250 | 8.0 | 19.0 | 0.00 | 0.00 | 0.00 | 35 | 1011.7 |
| 20260502200830 | 61 | 340 | 9.0 | 19.0 | 0.00 | 0.00 | 0.00 | 34 | 1011.7 |
| 20260502200733 | 61 | 356 | 7.0 | 19.0 | 0.00 | 0.00 | 0.00 | 35 | 1011.7 |
| 20260502200631 | 61 | 328 | 11.0 | 19.0 | 0.00 | 0.00 | 0.00 | 34 | 1011.7 |
| 20260502200530 | 62 | 191 | 7.0 | 19.0 | 0.00 | 0.00 | 0.00 | 35 | 1011.7 |
| 20260502200428 | 62 | 330 | 9.0 | 19.0 | 0.00 | 0.00 | 0.00 | 35 | 1011.7 |
| 20260502200326 | 62 | 323 | 12.0 | 19.0 | 0.00 | 0.00 | 0.00 | 35 | 1011.7 |
| 20260502200244 | 62 | 332 | 8.0 | 16.0 | 0.00 | 0.00 | 0.00 | 37 | 1011.7 |
| 20260502200216 | 62 | 333 | 9.0 | 17.0 | 0.00 | 0.00 | 0.00 | 36 | 1011.7 |
| 20260502200035 | 62 | 330 | 8.0 | 18.0 | 0.00 | 0.00 | 0.00 | 36 | 1011.7 |
| 20260502195933 | 62 | 319 | 6.0 | 18.0 | 0.00 | 0.00 | 0.00 | 34 | 1011.7 |
| 20260502195832 | 62 | 335 | 9.0 | 18.0 | 0.00 | 0.00 | 0.00 | 34 | 1012.1 |
| 20260502195731 | 62 | 344 | 7.0 | 18.0 | 0.00 | 0.00 | 0.00 | 36 | 1012.1 |
| 20260502195648 | 62 | 32 | 8.0 | 18.0 | 0.00 | 0.00 | 0.00 | 35 | 1012.1 |
| 20260502195525 | 61 | 260 | 10.0 | 18.0 | 0.00 | 0.00 | 0.00 | 36 | 1012.1 |
| 20260502195424 | 61 | 346 | 3.0 | 18.0 | 0.00 | 0.00 | 0.00 | 36 | 1012.1 |
| 20260502195343 | 61 | 328 | 13.0 | 18.0 | 0.00 | 0.00 | 0.00 | 35 | 1012.1 |
| 20260502195229 | 61 | 325 | 13.0 | 18.0 | 0.00 | 0.00 | 0.00 | 37 | 1012.1 |
| 20260502195146 | 61 | 322 | 11.0 | 18.0 | 0.00 | 0.00 | 0.00 | 37 | 1012.1 |
| 20260502195105 | 61 | 325 | 8.0 | 18.0 | 0.00 | 0.00 | 0.00 | 37 | 1012.1 |
| 20260502194942 | 61 | 323 | 9.0 | 18.0 | 0.00 | 0.00 | 0.00 | 36 | 1012.1 |
| 20260502194840 | 61 | 312 | 6.0 | 18.0 | 0.00 | 0.00 | 0.00 | 38 | 1012.1 |
| 20260502194739 | 61 | 318 | 6.0 | 18.0 | 0.00 | 0.00 | 0.00 | 38 | 1012.1 |
| 20260502194709 | 61 | 320 | 11.0 | 18.0 | 0.00 | 0.00 | 0.00 | 36 | 1012.1 |
| 20260502194525 | 61 | 308 | 12.0 | 17.0 | 0.00 | 0.00 | 0.00 | 38 | 1012.1 |
| 20260502194426 | 61 | 311 | 6.0 | 17.0 | 0.00 | 0.00 | 0.00 | 37 | 1012.1 |
| 20260502194325 | 61 | 340 | 9.0 | 17.0 | 0.00 | 0.00 | 0.00 | 40 | 1012.3 |
| 20260502194243 | 61 | 329 | 7.0 | 17.0 | 0.00 | 0.00 | 0.00 | 40 | 1012.3 |
| 20260502194142 | 61 | 344 | 5.0 | 17.0 | 0.00 | 0.00 | 0.00 | 40 | 1012.3 |
| 20260502194040 | 61 | 332 | 5.0 | 17.0 | 0.00 | 0.00 | 0.00 | 38 | 1012.3 |
| 20260502193938 | 61 | 315 | 7.0 | 17.0 | 0.00 | 0.00 | 0.00 | 38 | 1012.3 |
| 20260502193837 | 61 | 339 | 9.0 | 17.0 | 0.00 | 0.00 | 0.00 | 37 | 1012.3 |
| 20260502193738 | 61 | 328 | 13.0 | 17.0 | 0.00 | 0.00 | 0.00 | 35 | 1012.3 |
| 20260502193636 | 61 | 357 | 10.0 | 17.0 | 0.00 | 0.00 | 0.00 | 36 | 1012.3 |
| 20260502193534 | 61 | 330 | 7.0 | 14.0 | 0.00 | 0.00 | 0.00 | 38 | 1012.3 |
| 20260502193432 | 61 | 328 | 9.0 | 14.0 | 0.00 | 0.00 | 0.00 | 38 | 1012.3 |
| 20260502193331 | 61 | 336 | 6.0 | 14.0 | 0.00 | 0.00 | 0.00 | 39 | 1012.3 |
| 20260502193241 | 61 | 326 | 5.0 | 14.0 | 0.00 | 0.00 | 0.00 | 38 | 1012.3 |
| 20260502193151 | 61 | 359 | 8.0 | 14.0 | 0.00 | 0.00 | 0.00 | 38 | 1012.3 |
| 20260502193032 | 61 | 357 | 7.0 | 14.0 | 0.00 | 0.00 | 0.00 | 38 | 1012.3 |
| 20260502192951 | 61 | 325 | 8.0 | 14.0 | 0.00 | 0.00 | 0.00 | 39 | 1012.3 |
| 20260502192830 | 61 | 332 | 4.0 | 14.0 | 0.00 | 0.00 | 0.00 | 39 | 1012.3 |
| 20260502192727 | 61 | 315 | 7.0 | 14.0 | 0.00 | 0.00 | 0.00 | 38 | 1012.3 |
| 20260502192625 | 61 | 330 | 9.0 | 14.0 | 0.00 | 0.00 | 0.00 | 37 | 1012.3 |
| 20260502192526 | 61 | 322 | 11.0 | 14.0 | 0.00 | 0.00 | 0.00 | 41 | 1012.3 |
| 20260502192424 | 61 | 312 | 7.0 | 14.0 | 0.00 | 0.00 | 0.00 | 40 | 1012.3 |
| 20260502192326 | 61 | 332 | 1.0 | 14.0 | 0.00 | 0.00 | 0.00 | 39 | 1012.3 |
| 20260502192245 | 61 | 326 | 7.0 | 17.0 | 0.00 | 0.00 | 0.00 | 38 | 1012.3 |
| 20260502192141 | 61 | 352 | 6.0 | 17.0 | 0.00 | 0.00 | 0.00 | 38 | 1012.3 |
| 20260502192100 | 61 | 349 | 7.0 | 17.0 | 0.00 | 0.00 | 0.00 | 38 | 1012.3 |
| 20260502192000 | 61 | 320 | 9.0 | 17.0 | 0.00 | 0.00 | 0.00 | 37 | 1012.3 |
| 20260502191838 | 61 | 322 | 7.0 | 19.0 | 0.00 | 0.00 | 0.00 | 37 | 1012.3 |
| 20260502191756 | 61 | 344 | 7.0 | 21.0 | 0.00 | 0.00 | 0.00 | 38 | 1012.3 |
| 20260502191725 | 61 | 325 | 8.0 | 21.0 | 0.00 | 0.00 | 0.00 | 37 | 1012.3 |
| 20260502191542 | 62 | 347 | 8.0 | 21.0 | 0.00 | 0.00 | 0.00 | 36 | 1012.3 |
| 20260502191425 | 62 | 337 | 10.0 | 21.0 | 0.00 | 0.00 | 0.00 | 35 | 1012.3 |
| 20260502191343 | 62 | 325 | 10.0 | 21.0 | 0.00 | 0.00 | 0.00 | 37 | 1012.3 |
| 20260502191242 | 62 | 326 | 9.0 | 21.0 | 0.00 | 0.00 | 0.00 | 35 | 1012.3 |
| 20260502191141 | 62 | 330 | 9.0 | 21.0 | 0.00 | 0.00 | 0.00 | 33 | 1012.3 |
| 20260502191040 | 62 | 337 | 13.0 | 21.0 | 0.00 | 0.00 | 0.00 | 36 | 1012.3 |
| 20260502190937 | 62 | 89 | 15.0 | 21.0 | 0.00 | 0.00 | 0.00 | 36 | 1012.3 |
| 20260502190836 | 62 | 339 | 10.0 | 17.0 | 0.00 | 0.00 | 0.00 | 39 | 1012.3 |
| 20260502190733 | 62 | 326 | 7.0 | 11.0 | 0.00 | 0.00 | 0.00 | 39 | 1012.3 |
| 20260502190636 | 62 | 160 | 4.0 | 11.0 | 0.00 | 0.00 | 0.00 | 35 | 1012.3 |
| 20260502190535 | 62 | 330 | 5.0 | 11.0 | 0.00 | 0.00 | 0.00 | 37 | 1012.3 |
| 20260502190434 | 62 | 335 | 7.0 | 16.0 | 0.00 | 0.00 | 0.00 | 34 | 1012.3 |
| 20260502190333 | 62 | 330 | 6.0 | 16.0 | 0.00 | 0.00 | 0.00 | 35 | 1012.3 |
| 20260502190232 | 62 | 157 | 4.0 | 18.0 | 0.00 | 0.00 | 0.00 | 34 | 1012.3 |
| 20260502190201 | 62 | 332 | 4.0 | 18.0 | 0.00 | 0.00 | 0.00 | 34 | 1012.3 |
| 20260502190037 | 62 | 352 | 7.0 | 18.0 | 0.00 | 0.00 | 0.00 | 36 | 1012.3 |
| 20260502185940 | 62 | 189 | 5.0 | 18.0 | 0.00 | 0.00 | 0.00 | 37 | 1012.3 |
| 20260502185837 | 62 | 104 | 4.0 | 18.0 | 0.00 | 0.00 | 0.00 | 36 | 1012.4 |
| 20260502185756 | 62 | 326 | 7.0 | 18.0 | 0.00 | 0.00 | 0.00 | 35 | 1012.4 |
| 20260502185632 | 62 | 335 | 11.0 | 18.0 | 0.00 | 0.00 | 0.00 | 36 | 1012.4 |
| 20260502185530 | 62 | 329 | 10.0 | 18.0 | 0.00 | 0.00 | 0.00 | 35 | 1012.4 |
| 20260502185428 | 62 | 333 | 11.0 | 18.0 | 0.00 | 0.00 | 0.00 | 38 | 1012.4 |
| 20260502185328 | 62 | 325 | 6.0 | 15.0 | 0.00 | 0.00 | 0.00 | 36 | 1012.4 |
| 20260502185229 | 62 | 326 | 10.0 | 19.0 | 0.00 | 0.00 | 0.00 | 36 | 1012.4 |
| 20260502185130 | 62 | 337 | 13.0 | 19.0 | 0.00 | 0.00 | 0.00 | 37 | 1012.4 |
| 20260502185026 | 62 | 339 | 7.0 | 19.0 | 0.00 | 0.00 | 0.00 | 37 | 1012.4 |
| 20260502184943 | 62 | 326 | 6.0 | 19.0 | 0.00 | 0.00 | 0.00 | 35 | 1012.4 |
| 20260502184838 | 62 | 328 | 4.0 | 19.0 | 0.00 | 0.00 | 0.00 | 34 | 1012.4 |
| 20260502184736 | 62 | 335 | 8.0 | 19.0 | 0.00 | 0.00 | 0.00 | 35 | 1012.4 |
| 20260502184705 | 62 | 332 | 6.0 | 19.0 | 0.00 | 0.00 | 0.00 | 38 | 1012.4 |
| 20260502184600 | 62 | 339 | 4.0 | 19.0 | 0.00 | 0.00 | 0.00 | 35 | 1012.4 |
| 20260502184438 | 62 | 357 | 10.0 | 19.0 | 0.00 | 0.00 | 0.00 | 36 | 1012.4 |
| 20260502184342 | 62 | 335 | 12.0 | 19.0 | 0.00 | 0.00 | 0.00 | 36 | 1012.4 |
| 20260502184240 | 62 | 333 | 9.0 | 18.0 | 0.00 | 0.00 | 0.00 | 37 | 1012.4 |
| 20260502184159 | 62 | 93 | 3.0 | 17.0 | 0.00 | 0.00 | 0.00 | 37 | 1012.4 |
| 20260502184036 | 62 | 332 | 5.0 | 17.0 | 0.00 | 0.00 | 0.00 | 36 | 1012.4 |
| 20260502183955 | 62 | 333 | 9.0 | 17.0 | 0.00 | 0.00 | 0.00 | 35 | 1012.4 |
| 20260502183831 | 62 | 184 | 11.0 | 17.0 | 0.00 | 0.00 | 0.00 | 35 | 1012.4 |
| 20260502183730 | 62 | 346 | 9.0 | 24.0 | 0.00 | 0.00 | 0.00 | 34 | 1012.4 |
| 20260502183630 | 62 | 340 | 10.0 | 24.0 | 0.00 | 0.00 | 0.00 | 35 | 1012.4 |
| 20260502183532 | 62 | 335 | 5.0 | 24.0 | 0.00 | 0.00 | 0.00 | 36 | 1012.4 |
| 20260502183430 | 62 | 315 | 7.0 | 24.0 | 0.00 | 0.00 | 0.00 | 36 | 1012.4 |
| 20260502183328 | 62 | 326 | 3.0 | 24.0 | 0.00 | 0.00 | 0.00 | 35 | 1012.4 |
| 20260502183238 | 62 | 353 | 11.0 | 24.0 | 0.00 | 0.00 | 0.00 | 34 | 1012.4 |
| 20260502183148 | 62 | 332 | 9.0 | 24.0 | 0.00 | 0.00 | 0.00 | 35 | 1012.4 |
| 20260502183027 | 62 | 347 | 9.0 | 24.0 | 0.00 | 0.00 | 0.00 | 35 | 1012.4 |
| 20260502182925 | 62 | 350 | 11.0 | 24.0 | 0.00 | 0.00 | 0.00 | 34 | 1012.4 |
| 20260502182826 | 62 | 326 | 10.0 | 21.0 | 0.00 | 0.00 | 0.00 | 36 | 1012.3 |
| 20260502182724 | 62 | 316 | 12.0 | 21.0 | 0.00 | 0.00 | 0.00 | 36 | 1012.3 |
| 20260502182643 | 62 | 328 | 14.0 | 21.0 | 0.00 | 0.00 | 0.00 | 36 | 1012.3 |
| 20260502182542 | 62 | 329 | 9.0 | 19.0 | 0.00 | 0.00 | 0.00 | 36 | 1012.3 |
| 20260502182442 | 62 | 323 | 7.0 | 19.0 | 0.00 | 0.00 | 0.00 | 38 | 1012.3 |
| 20260502182359 | 62 | 88 | 7.0 | 19.0 | 0.00 | 0.00 | 0.00 | 36 | 1012.3 |
| 20260502182257 | 62 | 333 | 10.0 | 19.0 | 0.00 | 0.00 | 0.00 | 35 | 1012.3 |
| 20260502182155 | 62 | 318 | 12.0 | 19.0 | 0.00 | 0.00 | 0.00 | 36 | 1012.3 |
| 20260502182036 | 62 | 323 | 7.0 | 16.0 | 0.00 | 0.00 | 0.00 | 35 | 1012.3 |
| 20260502181933 | 62 | 326 | 7.0 | 16.0 | 0.00 | 0.00 | 0.00 | 37 | 1012.3 |
| 20260502181852 | 62 | 330 | 5.0 | 16.0 | 0.00 | 0.00 | 0.00 | 38 | 1012.3 |
| 20260502181742 | 62 | 330 | 7.0 | 16.0 | 0.00 | 0.00 | 0.00 | 38 | 1012.3 |
| 20260502181651 | 62 | 328 | 5.0 | 16.0 | 0.00 | 0.00 | 0.00 | 36 | 1012.3 |
| 20260502181527 | 62 | 117 | 7.0 | 19.0 | 0.00 | 0.00 | 0.00 | 38 | 1012.3 |
| 20260502181427 | 62 | 332 | 5.0 | 19.0 | 0.00 | 0.00 | 0.00 | 34 | 1012.3 |
| 20260502181325 | 62 | 359 | 7.0 | 19.0 | 0.00 | 0.00 | 0.00 | 34 | 1012.4 |
| 20260502181227 | 62 | 51 | 7.0 | 19.0 | 0.00 | 0.00 | 0.00 | 36 | 1012.4 |
| 20260502181146 | 62 | 319 | 9.0 | 19.0 | 0.00 | 0.00 | 0.00 | 36 | 1012.4 |
| 20260502181104 | 62 | 333 | 6.0 | 19.0 | 0.00 | 0.00 | 0.00 | 35 | 1012.4 |
| 20260502181002 | 62 | 339 | 5.0 | 19.0 | 0.00 | 0.00 | 0.00 | 36 | 1012.4 |
| 20260502180859 | 62 | 306 | 8.0 | 19.0 | 0.00 | 0.00 | 0.00 | 36 | 1012.4 |
| 20260502180736 | 62 | 326 | 11.0 | 19.0 | 0.00 | 0.00 | 0.00 | 39 | 1012.4 |
| 20260502180639 | 62 | 320 | 9.0 | 17.0 | 0.00 | 0.00 | 0.00 | 36 | 1012.4 |
| 20260502180536 | 62 | 330 | 10.0 | 17.0 | 0.00 | 0.00 | 0.00 | 36 | 1012.4 |
| 20260502180439 | 62 | 356 | 10.0 | 17.0 | 0.00 | 0.00 | 0.00 | 36 | 1012.4 |
| 20260502180336 | 62 | 342 | 8.0 | 17.0 | 0.00 | 0.00 | 0.00 | 37 | 1012.4 |
| 20260502180234 | 62 | 347 | 11.0 | 17.0 | 0.00 | 0.00 | 0.00 | 37 | 1012.4 |
| 20260502180206 | 62 | 157 | 7.0 | 17.0 | 0.00 | 0.00 | 0.00 | 34 | 1012.4 |
| 20260502170437 | 60 | 332 | 7.0 | 14.0 | 0.00 | 0.00 | 0.00 | 40 | 1012.8 |
| 20260502170336 | 60 | 357 | 10.0 | 14.0 | 0.00 | 0.00 | 0.00 | 38 | 1012.8 |
| 20260502170234 | 60 | 296 | 7.0 | 13.0 | 0.00 | 0.00 | 0.00 | 37 | 1012.8 |
| 20260502170206 | 60 | 185 | 6.0 | 13.0 | 0.00 | 0.00 | 0.00 | 37 | 1012.8 |
| 20260502164328 | 59 | 164 | 8.0 | 14.0 | 0.00 | 0.00 | 0.00 | 39 | 1013.2 |
| 20260502164246 | 59 | 240 | 8.0 | 14.0 | 0.00 | 0.00 | 0.00 | 40 | 1013.2 |
| 20260502164143 | 59 | 360 | 8.0 | 14.0 | 0.00 | 0.00 | 0.00 | 40 | 1013.2 |
| 20260502164043 | 59 | 336 | 8.0 | 14.0 | 0.00 | 0.00 | 0.00 | 40 | 1013.2 |
| 20260502164001 | 59 | 330 | 9.0 | 14.0 | 0.00 | 0.00 | 0.00 | 42 | 1013.2 |
| 20260502163839 | 59 | 254 | 7.0 | 14.0 | 0.00 | 0.00 | 0.00 | 42 | 1013.2 |
| 20260502163737 | 59 | 319 | 3.0 | 14.0 | 0.00 | 0.00 | 0.00 | 43 | 1013.2 |
| 20260502163639 | 59 | 203 | 4.0 | 14.0 | 0.00 | 0.00 | 0.00 | 43 | 1013.2 |
| 20260502163558 | 59 | 328 | 7.0 | 14.0 | 0.00 | 0.00 | 0.00 | 41 | 1013.2 |
| 20260502163434 | 59 | 147 | 9.0 | 14.0 | 0.00 | 0.00 | 0.00 | 40 | 1013.2 |
| 20260502163332 | 59 | 335 | 4.0 | 14.0 | 0.00 | 0.00 | 0.00 | 40 | 1013.2 |
| 20260502163231 | 59 | 143 | 6.0 | 18.0 | 0.00 | 0.00 | 0.00 | 41 | 1013.2 |
| 20260502163200 | 59 | 298 | 7.0 | 18.0 | 0.00 | 0.00 | 0.00 | 39 | 1013.2 |
| 20260502163036 | 58 | 138 | 9.0 | 18.0 | 0.00 | 0.00 | 0.00 | 38 | 1013.2 |
| 20260502162935 | 58 | 193 | 9.0 | 18.0 | 0.00 | 0.00 | 0.00 | 41 | 1013.2 |
| 20260502162838 | 58 | 320 | 7.0 | 18.0 | 0.00 | 0.00 | 0.00 | 41 | 1013.2 |
| 20260502162736 | 58 | 333 | 8.0 | 18.0 | 0.00 | 0.00 | 0.00 | 41 | 1013.2 |
| 20260502162633 | 58 | 110 | 5.0 | 18.0 | 0.00 | 0.00 | 0.00 | 42 | 1013.2 |
| 20260502162534 | 58 | 110 | 4.0 | 18.0 | 0.00 | 0.00 | 0.00 | 41 | 1013.2 |
| 20260502162437 | 58 | 75 | 12.0 | 18.0 | 0.00 | 0.00 | 0.00 | 38 | 1013.2 |
| 20260502162355 | 58 | 253 | 11.0 | 18.0 | 0.00 | 0.00 | 0.00 | 38 | 1013.2 |
| 20260502162254 | 58 | 257 | 11.0 | 18.0 | 0.00 | 0.00 | 0.00 | 38 | 1013.2 |
| 20260502162134 | 58 | 189 | 5.0 | 18.0 | 0.00 | 0.00 | 0.00 | 43 | 1013.2 |
| 20260502162033 | 58 | 330 | 4.0 | 18.0 | 0.00 | 0.00 | 0.00 | 42 | 1013.2 |
| 20260502161932 | 58 | 359 | 4.0 | 18.0 | 0.00 | 0.00 | 0.00 | 40 | 1013.2 |
| 20260502161849 | 58 | 158 | 5.0 | 18.0 | 0.00 | 0.00 | 0.00 | 40 | 1013.2 |
| 20260502161728 | 57 | 353 | 10.0 | 18.0 | 0.00 | 0.00 | 0.00 | 41 | 1013.2 |
| 20260502161658 | 57 | 343 | 12.0 | 18.0 | 0.00 | 0.00 | 0.00 | 41 | 1013.2 |
| 20260502161535 | 57 | 330 | 6.0 | 16.0 | 0.00 | 0.00 | 0.00 | 46 | 1013.2 |
| 20260502161434 | 57 | 330 | 8.0 | 17.0 | 0.00 | 0.00 | 0.00 | 44 | 1013.2 |
| 20260502161336 | 57 | 329 | 9.0 | 17.0 | 0.00 | 0.00 | 0.00 | 45 | 1013.2 |
| 20260502161237 | 57 | 342 | 6.0 | 17.0 | 0.00 | 0.00 | 0.00 | 43 | 1013.2 |
| 20260502161156 | 57 | 332 | 9.0 | 17.0 | 0.00 | 0.00 | 0.00 | 47 | 1013.2 |
| 20260502161033 | 57 | 343 | 6.0 | 17.0 | 0.00 | 0.00 | 0.00 | 45 | 1013.2 |
| 20260502160932 | 57 | 349 | 6.0 | 17.0 | 0.00 | 0.00 | 0.00 | 45 | 1013.2 |
| 20260502160829 | 57 | 76 | 5.0 | 17.0 | 0.00 | 0.00 | 0.00 | 45 | 1013.2 |
| 20260502160728 | 57 | 340 | 9.0 | 17.0 | 0.00 | 0.00 | 0.00 | 45 | 1013.2 |
| 20260502160631 | 57 | 336 | 8.0 | 17.0 | 0.00 | 0.00 | 0.00 | 45 | 1013.2 |
| 20260502160530 | 57 | 13 | 9.0 | 17.0 | 0.00 | 0.00 | 0.00 | 47 | 1013.2 |
| 20260502160428 | 57 | 191 | 9.0 | 17.0 | 0.00 | 0.00 | 0.00 | 47 | 1013.2 |
| 20260502160326 | 57 | 44 | 11.0 | 17.0 | 0.00 | 0.00 | 0.00 | 47 | 1013.2 |
| 20260502160244 | 57 | 333 | 6.0 | 17.0 | 0.00 | 0.00 | 0.00 | 47 | 1013.2 |
| 20260502160214 | 57 | 335 | 6.0 | 17.0 | 0.00 | 0.00 | 0.00 | 47 | 1013.2 |
| 20260502152330 | 56 | 119 | 8.0 | 18.0 | 0.00 | 0.00 | 0.00 | 45 | 1012.8 |
| 20260502152229 | 56 | 154 | 6.0 | 18.0 | 0.00 | 0.00 | 0.00 | 44 | 1012.8 |
| 20260502152147 | 56 | 256 | 5.0 | 18.0 | 0.00 | 0.00 | 0.00 | 46 | 1012.8 |
| 20260502152028 | 56 | 90 | 4.0 | 18.0 | 0.00 | 0.00 | 0.00 | 47 | 1012.8 |
| 20260502151947 | 56 | 337 | 10.0 | 18.0 | 0.00 | 0.00 | 0.00 | 47 | 1012.8 |
| 20260502151829 | 56 | 120 | 10.0 | 18.0 | 0.00 | 0.00 | 0.00 | 46 | 1012.8 |
| 20260502151758 | 56 | 332 | 9.0 | 18.0 | 0.00 | 0.00 | 0.00 | 47 | 1012.8 |
| 20260502151647 | 56 | 176 | 12.0 | 18.0 | 0.00 | 0.00 | 0.00 | 45 | 1012.8 |
| 20260502151522 | 56 | 280 | 6.0 | 18.0 | 0.00 | 0.00 | 0.00 | 50 | 1012.8 |
| 20260502151443 | 56 | 330 | 5.0 | 18.0 | 0.00 | 0.00 | 0.00 | 47 | 1012.8 |
| 20260502151341 | 55 | 184 | 7.0 | 20.0 | 0.00 | 0.00 | 0.00 | 47 | 1012.7 |
| 20260502151240 | 55 | 332 | 5.0 | 20.0 | 0.00 | 0.00 | 0.00 | 46 | 1012.7 |
| 20260502151159 | 55 | 335 | 4.0 | 20.0 | 0.00 | 0.00 | 0.00 | 49 | 1012.7 |
| 20260502151040 | 55 | 30 | 4.0 | 20.0 | 0.00 | 0.00 | 0.00 | 50 | 1012.7 |
| 20260502151000 | 55 | 82 | 3.0 | 20.0 | 0.00 | 0.00 | 0.00 | 49 | 1012.7 |
| 20260502150838 | 55 | 161 | 7.0 | 20.0 | 0.00 | 0.00 | 0.00 | 50 | 1012.7 |
| 20260502150755 | 55 | 335 | 11.0 | 20.0 | 0.00 | 0.00 | 0.00 | 52 | 1012.7 |
| 20260502150633 | 55 | 337 | 4.0 | 20.0 | 0.00 | 0.00 | 0.00 | 50 | 1012.7 |
| 20260502150531 | 55 | 271 | 11.0 | 20.0 | 0.00 | 0.00 | 0.00 | 50 | 1012.7 |
| 20260502150428 | 55 | 332 | 7.0 | 14.0 | 0.00 | 0.00 | 0.00 | 52 | 1012.7 |
| 20260502150347 | 55 | 360 | 2.0 | 14.0 | 0.00 | 0.00 | 0.00 | 50 | 1012.7 |
| 20260502150309 | 55 | 347 | 8.0 | 14.0 | 0.00 | 0.00 | 0.00 | 50 | 1012.7 |
| 20260502150219 | 55 | 292 | 9.0 | 14.0 | 0.00 | 0.00 | 0.00 | 50 | 1012.7 |
| 20260502130742 | 48 | 251 | 9.0 | 17.0 | 0.00 | 0.00 | 0.00 | 69 | 1012.2 |
| 20260502130644 | 48 | 271 | 8.0 | 17.0 | 0.00 | 0.00 | 0.00 | 69 | 1012.2 |
| 20260502130602 | 48 | 239 | 8.0 | 17.0 | 0.00 | 0.00 | 0.00 | 68 | 1012.2 |
| 20260502130459 | 48 | 89 | 10.0 | 17.0 | 0.00 | 0.00 | 0.00 | 69 | 1012.2 |
| 20260502130337 | 48 | 199 | 7.0 | 13.0 | 0.00 | 0.00 | 0.00 | 70 | 1012.2 |
| 20260502130256 | 48 | 257 | 6.0 | 13.0 | 0.00 | 0.00 | 0.00 | 70 | 1012.2 |
| 20260502130226 | 48 | 209 | 8.0 | 13.0 | 0.00 | 0.00 | 0.00 | 70 | 1012.2 |
| 20260502123738 | 47 | 325 | 6.0 | 11.0 | 0.00 | 0.00 | 0.00 | 71 | 1012.0 |
| 20260502123636 | 47 | 110 | 6.0 | 10.0 | 0.00 | 0.00 | 0.00 | 71 | 1012.0 |
| 20260502123536 | 47 | 295 | 5.0 | 10.0 | 0.00 | 0.00 | 0.00 | 71 | 1012.0 |
| 20260502123438 | 47 | 272 | 6.0 | 11.0 | 0.00 | 0.00 | 0.00 | 71 | 1012.0 |
| 20260502123336 | 47 | 239 | 4.0 | 11.0 | 0.00 | 0.00 | 0.00 | 71 | 1012.0 |
| 20260502123235 | 47 | 88 | 5.0 | 11.0 | 0.00 | 0.00 | 0.00 | 71 | 1012.0 |
| 20260502123204 | 47 | 323 | 6.0 | 11.0 | 0.00 | 0.00 | 0.00 | 71 | 1012.0 |
| 20260502123041 | 47 | 258 | 4.0 | 11.0 | 0.00 | 0.00 | 0.00 | 71 | 1012.0 |
| 20260502122939 | 47 | 264 | 5.0 | 11.0 | 0.00 | 0.00 | 0.00 | 71 | 1012.0 |
| 20260502122840 | 47 | 215 | 5.0 | 11.0 | 0.00 | 0.00 | 0.00 | 71 | 1011.8 |
| 20260502122759 | 47 | 335 | 4.0 | 11.0 | 0.00 | 0.00 | 0.00 | 70 | 1011.8 |
| 20260502122640 | 47 | 75 | 7.0 | 11.0 | 0.00 | 0.00 | 0.00 | 70 | 1011.8 |
| 20260502122538 | 47 | 92 | 10.0 | 11.0 | 0.00 | 0.00 | 0.00 | 71 | 1011.8 |
| 20260502122457 | 47 | 134 | 7.0 | 11.0 | 0.00 | 0.00 | 0.00 | 71 | 1011.8 |
| 20260502122353 | 47 | 96 | 4.0 | 10.0 | 0.00 | 0.00 | 0.00 | 71 | 1011.8 |
| 20260502122231 | 47 | 147 | 4.0 | 10.0 | 0.00 | 0.00 | 0.00 | 71 | 1011.8 |
| 20260502122129 | 47 | 332 | 3.0 | 10.0 | 0.00 | 0.00 | 0.00 | 72 | 1011.8 |
| 20260502122048 | 47 | 192 | 1.0 | 10.0 | 0.00 | 0.00 | 0.00 | 72 | 1011.8 |
| 20260502121945 | 47 | 329 | 3.0 | 10.0 | 0.00 | 0.00 | 0.00 | 72 | 1011.8 |
| 20260502121902 | 47 | 342 | 4.0 | 10.0 | 0.00 | 0.00 | 0.00 | 72 | 1011.8 |
| 20260502121724 | 47 | 330 | 5.0 | 10.0 | 0.00 | 0.00 | 0.00 | 72 | 1011.8 |
| 20260502121654 | 47 | 182 | 6.0 | 10.0 | 0.00 | 0.00 | 0.00 | 72 | 1011.8 |
| 20260502121531 | 47 | 258 | 3.0 | 13.0 | 0.00 | 0.00 | 0.00 | 72 | 1011.8 |
| 20260502121448 | 47 | 328 | 3.0 | 13.0 | 0.00 | 0.00 | 0.00 | 72 | 1011.8 |
| 20260502121347 | 47 | 335 | 3.0 | 13.0 | 0.00 | 0.00 | 0.00 | 71 | 1011.5 |
| 20260502121304 | 47 | 256 | 2.0 | 13.0 | 0.00 | 0.00 | 0.00 | 71 | 1011.5 |
| 20260502121142 | 47 | 110 | 3.0 | 13.0 | 0.00 | 0.00 | 0.00 | 71 | 1011.5 |
| 20260502121040 | 47 | 330 | 5.0 | 13.0 | 0.00 | 0.00 | 0.00 | 70 | 1011.5 |
| 20260502120943 | 47 | 119 | 5.0 | 13.0 | 0.00 | 0.00 | 0.00 | 71 | 1011.5 |
| 20260502120901 | 47 | 172 | 4.0 | 13.0 | 0.00 | 0.00 | 0.00 | 70 | 1011.5 |
| 20260502120738 | 47 | 210 | 7.0 | 13.0 | 0.00 | 0.00 | 0.00 | 70 | 1011.5 |
| 20260502120636 | 47 | 274 | 4.0 | 10.0 | 0.00 | 0.00 | 0.00 | 70 | 1011.5 |
| 20260502120535 | 47 | 316 | 5.0 | 10.0 | 0.00 | 0.00 | 0.00 | 71 | 1011.5 |
| 20260502120432 | 47 | 328 | 5.0 | 10.0 | 0.00 | 0.00 | 0.00 | 71 | 1011.5 |
| 20260502120352 | 47 | 123 | 8.0 | 10.0 | 0.00 | 0.00 | 0.00 | 71 | 1011.5 |
| 20260502120240 | 47 | 191 | 7.0 | 9.0 | 0.00 | 0.00 | 0.00 | 71 | 1011.5 |
| 20260502120153 | 47 | 319 | 3.0 | 9.0 | 0.00 | 0.00 | 0.00 | 71 | 1011.5 |
| 20260502115929 | 47 | 227 | 4.0 | 9.0 | 0.00 | 0.00 | 0.00 | 71 | 1011.5 |
| 20260502115828 | 47 | 330 | 5.0 | 9.0 | 0.00 | 0.00 | 0.00 | 71 | 1011.5 |
| 20260502115745 | 47 | 328 | 4.0 | 10.0 | 0.00 | 0.00 | 0.00 | 71 | 1011.5 |
| 20260502115643 | 47 | 172 | 4.0 | 10.0 | 0.00 | 0.00 | 0.00 | 71 | 1011.5 |
| 20260502115601 | 47 | 186 | 4.0 | 10.0 | 0.00 | 0.00 | 0.00 | 70 | 1011.5 |
| 20260502115458 | 47 | 332 | 4.0 | 10.0 | 0.00 | 0.00 | 0.00 | 70 | 1011.5 |
| 20260502115335 | 47 | 289 | 4.0 | 10.0 | 0.00 | 0.00 | 0.00 | 70 | 1011.5 |
| 20260502115236 | 47 | 75 | 3.0 | 10.0 | 0.00 | 0.00 | 0.00 | 71 | 1011.5 |
| 20260502115135 | 47 | 116 | 3.0 | 11.0 | 0.00 | 0.00 | 0.00 | 70 | 1011.5 |
| 20260502115033 | 47 | 192 | 5.0 | 11.0 | 0.00 | 0.00 | 0.00 | 70 | 1011.5 |
| 20260502114931 | 47 | 90 | 5.0 | 11.0 | 0.00 | 0.00 | 0.00 | 70 | 1011.5 |
| 20260502114832 | 47 | 353 | 2.0 | 11.0 | 0.00 | 0.00 | 0.00 | 70 | 1011.5 |
| 20260502114749 | 47 | 239 | 3.0 | 11.0 | 0.00 | 0.00 | 0.00 | 70 | 1011.5 |
| 20260502114657 | 47 | 202 | 3.0 | 11.0 | 0.00 | 0.00 | 0.00 | 70 | 1011.5 |
| 20260502114539 | 47 | 215 | 3.0 | 11.0 | 0.00 | 0.00 | 0.00 | 69 | 1011.5 |
| 20260502114457 | 47 | 127 | 5.0 | 11.0 | 0.00 | 0.00 | 0.00 | 69 | 1011.5 |
| 20260502114335 | 47 | 330 | 7.0 | 11.0 | 0.00 | 0.00 | 0.00 | 70 | 1011.4 |
| 20260502114234 | 47 | 329 | 4.0 | 10.0 | 0.00 | 0.00 | 0.00 | 69 | 1011.4 |
| 20260502114133 | 47 | 157 | 4.0 | 10.0 | 0.00 | 0.00 | 0.00 | 69 | 1011.4 |
| 20260502114031 | 47 | 209 | 2.0 | 10.0 | 0.00 | 0.00 | 0.00 | 69 | 1011.4 |
| 20260502113928 | 47 | 61 | 6.0 | 10.0 | 0.00 | 0.00 | 0.00 | 69 | 1011.4 |
| 20260502113847 | 47 | 172 | 6.0 | 10.0 | 0.00 | 0.00 | 0.00 | 69 | 1011.4 |
| 20260502113728 | 47 | 292 | 3.0 | 10.0 | 0.00 | 0.00 | 0.00 | 69 | 1011.4 |
| 20260502113631 | 47 | 234 | 4.0 | 10.0 | 0.00 | 0.00 | 0.00 | 69 | 1011.4 |
| 20260502113528 | 47 | 73 | 6.0 | 10.0 | 0.00 | 0.00 | 0.00 | 69 | 1011.4 |
| 20260502113446 | 47 | 184 | 6.0 | 10.0 | 0.00 | 0.00 | 0.00 | 68 | 1011.4 |
| 20260502113404 | 47 | 328 | 5.0 | 8.0 | 0.00 | 0.00 | 0.00 | 68 | 1011.4 |
| 20260502113242 | 47 | 294 | 5.0 | 8.0 | 0.00 | 0.00 | 0.00 | 68 | 1011.4 |
| 20260502113151 | 47 | 133 | 4.0 | 8.0 | 0.00 | 0.00 | 0.00 | 68 | 1011.4 |
| 20260502113028 | 47 | 330 | 4.0 | 8.0 | 0.00 | 0.00 | 0.00 | 68 | 1011.4 |
| 20260502112931 | 47 | 123 | 3.0 | 8.0 | 0.00 | 0.00 | 0.00 | 68 | 1011.4 |
| 20260502112830 | 47 | 199 | 5.0 | 8.0 | 0.00 | 0.00 | 0.00 | 68 | 1011.3 |
| 20260502112728 | 47 | 323 | 3.0 | 8.0 | 0.00 | 0.00 | 0.00 | 68 | 1011.3 |
| 20260502112626 | 47 | 308 | 5.0 | 8.0 | 0.00 | 0.00 | 0.00 | 68 | 1011.3 |
| 20260502112543 | 47 | 295 | 5.0 | 8.0 | 0.00 | 0.00 | 0.00 | 68 | 1011.3 |
| 20260502112441 | 47 | 109 | 5.0 | 8.0 | 0.00 | 0.00 | 0.00 | 68 | 1011.3 |
| 20260502112400 | 47 | 144 | 6.0 | 8.0 | 0.00 | 0.00 | 0.00 | 68 | 1011.3 |
| 20260502112237 | 47 | 333 | 5.0 | 8.0 | 0.00 | 0.00 | 0.00 | 68 | 1011.3 |
| 20260502112141 | 47 | 244 | 4.0 | 8.0 | 0.00 | 0.00 | 0.00 | 68 | 1011.3 |
| 20260502112036 | 47 | 241 | 5.0 | 8.0 | 0.00 | 0.00 | 0.00 | 68 | 1011.3 |
| 20260502111935 | 47 | 267 | 1.0 | 7.0 | 0.00 | 0.00 | 0.00 | 69 | 1011.3 |
| 20260502111833 | 47 | 311 | 4.0 | 7.0 | 0.00 | 0.00 | 0.00 | 69 | 1011.3 |
| 20260502111753 | 47 | 281 | 3.0 | 7.0 | 0.00 | 0.00 | 0.00 | 68 | 1011.3 |
| 20260502111722 | 47 | 130 | 2.0 | 7.0 | 0.00 | 0.00 | 0.00 | 68 | 1011.3 |
| 20260502111538 | 47 | 114 | 1.0 | 7.0 | 0.00 | 0.00 | 0.00 | 68 | 1011.3 |
| 20260502111437 | 47 | 42 | 1.0 | 7.0 | 0.00 | 0.00 | 0.00 | 68 | 1011.3 |
| 20260502111341 | 47 | 133 | 3.0 | 7.0 | 0.00 | 0.00 | 0.00 | 67 | 1010.9 |
| 20260502111239 | 47 | 330 | 3.0 | 7.0 | 0.00 | 0.00 | 0.00 | 67 | 1010.9 |
| 20260502111138 | 47 | 158 | 5.0 | 7.0 | 0.00 | 0.00 | 0.00 | 67 | 1010.9 |
| 20260502111037 | 47 | 191 | 4.0 | 7.0 | 0.00 | 0.00 | 0.00 | 68 | 1010.9 |
| 20260502110956 | 47 | 325 | 5.0 | 7.0 | 0.00 | 0.00 | 0.00 | 68 | 1010.9 |
| 20260502110833 | 47 | 230 | 3.0 | 7.0 | 0.00 | 0.00 | 0.00 | 67 | 1010.9 |
| 20260502110731 | 47 | 309 | 5.0 | 7.0 | 0.00 | 0.00 | 0.00 | 67 | 1010.9 |
| 20260502110633 | 47 | 254 | 2.0 | 7.0 | 0.00 | 0.00 | 0.00 | 67 | 1010.9 |
| 20260502110532 | 47 | 325 | 3.0 | 7.0 | 0.00 | 0.00 | 0.00 | 67 | 1010.9 |
| 20260502110429 | 48 | 301 | 5.0 | 7.0 | 0.00 | 0.00 | 0.00 | 66 | 1010.9 |
| 20260502110349 | 48 | 86 | 1.0 | 7.0 | 0.00 | 0.00 | 0.00 | 66 | 1010.9 |
| 20260502110246 | 48 | 191 | 3.0 | 7.0 | 0.00 | 0.00 | 0.00 | 66 | 1010.9 |
| 20260502110218 | 48 | 208 | 5.0 | 7.0 | 0.00 | 0.00 | 0.00 | 66 | 1010.9 |
| 20260502110054 | 48 | 100 | 5.0 | 7.0 | 0.00 | 0.00 | 0.00 | 66 | 1010.9 |
| 20260502105931 | 48 | 299 | 5.0 | 7.0 | 0.00 | 0.00 | 0.00 | 66 | 1010.9 |
| 20260502105851 | 48 | 79 | 2.0 | 7.0 | 0.00 | 0.00 | 0.00 | 66 | 1010.6 |
| 20260502105753 | 48 | 329 | 4.0 | 7.0 | 0.00 | 0.00 | 0.00 | 65 | 1010.6 |
| 20260502105630 | 48 | 299 | 6.0 | 7.0 | 0.00 | 0.00 | 0.00 | 65 | 1010.6 |
| 20260502105528 | 48 | 333 | 5.0 | 7.0 | 0.00 | 0.00 | 0.00 | 65 | 1010.6 |
| 20260502105426 | 48 | 315 | 1.0 | 7.0 | 0.00 | 0.00 | 0.00 | 65 | 1010.6 |
| 20260502105324 | 48 | 126 | 3.0 | 7.0 | 0.00 | 0.00 | 0.00 | 65 | 1010.6 |
| 20260502105243 | 48 | 244 | 4.0 | 8.0 | 0.00 | 0.00 | 0.00 | 65 | 1010.6 |
| 20260502105141 | 48 | 248 | 2.0 | 8.0 | 0.00 | 0.00 | 0.00 | 66 | 1010.6 |
| 20260502105043 | 48 | 304 | 2.0 | 13.0 | 0.00 | 0.00 | 0.00 | 65 | 1010.6 |
| 20260502104942 | 48 | 308 | 4.0 | 13.0 | 0.00 | 0.00 | 0.00 | 65 | 1010.6 |
| 20260502104840 | 48 | 349 | 5.0 | 13.0 | 0.00 | 0.00 | 0.00 | 65 | 1010.6 |
| 20260502104739 | 48 | 318 | 4.0 | 13.0 | 0.00 | 0.00 | 0.00 | 65 | 1010.6 |
| 20260502104709 | 48 | 131 | 3.0 | 13.0 | 0.00 | 0.00 | 0.00 | 65 | 1010.6 |
| 20260502104524 | 48 | 137 | 4.0 | 13.0 | 0.00 | 0.00 | 0.00 | 65 | 1010.6 |
| 20260502104443 | 48 | 174 | 5.0 | 13.0 | 0.00 | 0.00 | 0.00 | 65 | 1010.6 |
| 20260502104340 | 48 | 299 | 6.0 | 13.0 | 0.00 | 0.00 | 0.00 | 65 | 1010.6 |
| 20260502104300 | 48 | 95 | 7.0 | 13.0 | 0.00 | 0.00 | 0.00 | 64 | 1010.6 |
| 20260502104137 | 48 | 234 | 10.0 | 13.0 | 0.00 | 0.00 | 0.00 | 65 | 1010.6 |
| 20260502104054 | 48 | 332 | 7.0 | 13.0 | 0.00 | 0.00 | 0.00 | 65 | 1010.6 |
| 20260502103935 | 48 | 254 | 7.0 | 13.0 | 0.00 | 0.00 | 0.00 | 65 | 1010.6 |
| 20260502103833 | 48 | 152 | 9.0 | 13.0 | 0.00 | 0.00 | 0.00 | 65 | 1010.6 |
| 20260502103731 | 48 | 244 | 10.0 | 13.0 | 0.00 | 0.00 | 0.00 | 65 | 1010.6 |
| 20260502103630 | 48 | 138 | 7.0 | 12.0 | 0.00 | 0.00 | 0.00 | 65 | 1010.6 |
| 20260502103533 | 48 | 278 | 4.0 | 12.0 | 0.00 | 0.00 | 0.00 | 65 | 1010.6 |
| 20260502103431 | 48 | 325 | 6.0 | 12.0 | 0.00 | 0.00 | 0.00 | 65 | 1010.6 |
| 20260502103330 | 48 | 113 | 5.0 | 12.0 | 0.00 | 0.00 | 0.00 | 65 | 1010.6 |
| 20260502103239 | 48 | 280 | 8.0 | 12.0 | 0.00 | 0.00 | 0.00 | 65 | 1010.6 |
| 20260502103151 | 48 | 296 | 7.0 | 12.0 | 0.00 | 0.00 | 0.00 | 65 | 1010.6 |
| 20260502103027 | 48 | 296 | 8.0 | 12.0 | 0.00 | 0.00 | 0.00 | 66 | 1010.6 |
| 20260502102945 | 48 | 137 | 7.0 | 12.0 | 0.00 | 0.00 | 0.00 | 65 | 1010.6 |
| 20260502102842 | 48 | 270 | 6.0 | 12.0 | 0.00 | 0.00 | 0.00 | 65 | 1010.6 |
| 20260502102741 | 48 | 278 | 6.0 | 12.0 | 0.00 | 0.00 | 0.00 | 65 | 1010.6 |
| 20260502102703 | 48 | 296 | 6.0 | 12.0 | 0.00 | 0.00 | 0.00 | 65 | 1010.6 |
| 20260502102541 | 48 | 192 | 6.0 | 12.0 | 0.00 | 0.00 | 0.00 | 63 | 1010.6 |
| 20260502102459 | 48 | 309 | 6.0 | 12.0 | 0.00 | 0.00 | 0.00 | 63 | 1010.6 |
| 20260502102337 | 48 | 332 | 6.0 | 12.0 | 0.00 | 0.00 | 0.00 | 63 | 1010.6 |
| 20260502102236 | 48 | 202 | 7.0 | 12.0 | 0.00 | 0.00 | 0.00 | 63 | 1010.6 |
| 20260502102133 | 48 | 52 | 9.0 | 16.0 | 0.00 | 0.00 | 0.00 | 63 | 1010.6 |
| 20260502102032 | 48 | 333 | 5.0 | 16.0 | 0.00 | 0.00 | 0.00 | 64 | 1010.6 |
| 20260502101935 | 48 | 305 | 6.0 | 16.0 | 0.00 | 0.00 | 0.00 | 64 | 1010.6 |
| 20260502101834 | 48 | 147 | 5.0 | 16.0 | 0.00 | 0.00 | 0.00 | 64 | 1010.6 |
| 20260502101754 | 48 | 158 | 4.0 | 16.0 | 0.00 | 0.00 | 0.00 | 64 | 1010.6 |
| 20260502101540 | 48 | 267 | 8.0 | 16.0 | 0.00 | 0.00 | 0.00 | 62 | 1010.6 |
| 20260502101438 | 48 | 277 | 8.0 | 16.0 | 0.00 | 0.00 | 0.00 | 63 | 1010.6 |
| 20260502101336 | 48 | 236 | 9.0 | 16.0 | 0.00 | 0.00 | 0.00 | 64 | 1010.1 |
| 20260502101235 | 48 | 318 | 4.0 | 13.0 | 0.00 | 0.00 | 0.00 | 64 | 1010.1 |
| 20260502101154 | 48 | 158 | 4.0 | 13.0 | 0.00 | 0.00 | 0.00 | 62 | 1010.1 |
| 20260502101034 | 48 | 340 | 9.0 | 13.0 | 0.00 | 0.00 | 0.00 | 63 | 1010.1 |
| 20260502100954 | 48 | 72 | 7.0 | 13.0 | 0.00 | 0.00 | 0.00 | 62 | 1010.1 |
| 20260502100853 | 48 | 234 | 7.0 | 13.0 | 0.00 | 0.00 | 0.00 | 62 | 1010.1 |
| 20260502100730 | 48 | 275 | 8.0 | 13.0 | 0.00 | 0.00 | 0.00 | 62 | 1010.1 |
| 20260502100631 | 48 | 284 | 8.0 | 12.0 | 0.00 | 0.00 | 0.00 | 63 | 1010.1 |
| 20260502100529 | 48 | 222 | 7.0 | 14.0 | 0.00 | 0.00 | 0.00 | 62 | 1010.1 |
| 20260502100448 | 49 | 205 | 10.0 | 16.0 | 0.00 | 0.00 | 0.00 | 63 | 1010.1 |
| 20260502100326 | 49 | 295 | 2.0 | 16.0 | 0.00 | 0.00 | 0.00 | 62 | 1010.1 |
| 20260502100245 | 49 | 198 | 6.0 | 16.0 | 0.00 | 0.00 | 0.00 | 62 | 1010.1 |
| 20260502100218 | 49 | 264 | 4.0 | 16.0 | 0.00 | 0.00 | 0.00 | 63 | 1010.1 |
| 20260502091438 | 49 | 202 | 13.0 | 16.0 | 0.00 | 0.00 | 0.00 | 61 | 1010.4 |
| 20260502091339 | 49 | 264 | 9.0 | 16.0 | 0.00 | 0.00 | 0.00 | 60 | 1010.5 |
| 20260502091242 | 49 | 329 | 10.0 | 17.0 | 0.00 | 0.00 | 0.00 | 60 | 1010.5 |
| 20260502091142 | 49 | 294 | 8.0 | 17.0 | 0.00 | 0.00 | 0.00 | 60 | 1010.5 |
| 20260502091100 | 49 | 85 | 10.0 | 17.0 | 0.00 | 0.00 | 0.00 | 59 | 1010.5 |
| 20260502090939 | 49 | 336 | 12.0 | 17.0 | 0.00 | 0.00 | 0.00 | 59 | 1010.5 |
| 20260502090837 | 49 | 171 | 12.0 | 17.0 | 0.00 | 0.00 | 0.00 | 60 | 1010.5 |
| 20260502090735 | 49 | 318 | 11.0 | 17.0 | 0.00 | 0.00 | 0.00 | 60 | 1010.5 |
| 20260502090633 | 49 | 260 | 8.0 | 17.0 | 0.00 | 0.00 | 0.00 | 61 | 1010.5 |
| 20260502090535 | 49 | 261 | 6.0 | 17.0 | 0.00 | 0.00 | 0.00 | 60 | 1010.5 |
| 20260502090434 | 49 | 217 | 9.0 | 17.0 | 0.00 | 0.00 | 0.00 | 59 | 1010.5 |
| 20260502090331 | 49 | 329 | 12.0 | 17.0 | 0.00 | 0.00 | 0.00 | 59 | 1010.5 |
| 20260502090242 | 49 | 215 | 11.0 | 17.0 | 0.00 | 0.00 | 0.00 | 58 | 1010.5 |
| 20260502090151 | 49 | 237 | 10.0 | 17.0 | 0.00 | 0.00 | 0.00 | 59 | 1010.5 |
| 20260502071444 | 51 | 329 | 8.0 | 19.0 | 0.00 | 0.00 | 0.00 | 56 | 1010.6 |
| 20260502071341 | 51 | 304 | 7.0 | 19.0 | 0.00 | 0.00 | 0.00 | 57 | 1011.4 |
| 20260502071238 | 51 | 285 | 9.0 | 19.0 | 0.00 | 0.00 | 0.00 | 56 | 1011.4 |
| 20260502071141 | 51 | 199 | 13.0 | 19.0 | 0.00 | 0.00 | 0.00 | 56 | 1011.4 |
| 20260502071040 | 51 | 299 | 9.0 | 17.0 | 0.00 | 0.00 | 0.00 | 56 | 1011.4 |
| 20260502070939 | 51 | 329 | 8.0 | 17.0 | 0.00 | 0.00 | 0.00 | 56 | 1011.4 |
| 20260502070837 | 51 | 220 | 8.0 | 17.0 | 0.00 | 0.00 | 0.00 | 56 | 1011.4 |
| 20260502070735 | 51 | 200 | 9.0 | 17.0 | 0.00 | 0.00 | 0.00 | 56 | 1011.4 |
| 20260502070633 | 51 | 305 | 9.0 | 19.0 | 0.00 | 0.00 | 0.00 | 55 | 1011.4 |
| 20260502070552 | 51 | 186 | 11.0 | 19.0 | 0.00 | 0.00 | 0.00 | 54 | 1011.4 |
| 20260502070432 | 51 | 328 | 13.0 | 19.0 | 0.00 | 0.00 | 0.00 | 54 | 1011.4 |
| 20260502070331 | 51 | 155 | 11.0 | 19.0 | 0.00 | 0.00 | 0.00 | 54 | 1011.4 |
| 20260502070250 | 51 | 237 | 10.0 | 19.0 | 0.00 | 0.00 | 0.00 | 54 | 1011.4 |
| 20260502070200 | 51 | 289 | 9.0 | 19.0 | 0.00 | 0.00 | 0.00 | 55 | 1011.4 |
| 20260502070040 | 51 | 319 | 10.0 | 19.0 | 0.00 | 0.00 | 0.00 | 55 | 1011.4 |
| 20260502065938 | 51 | 319 | 10.0 | 19.0 | 0.00 | 0.00 | 0.00 | 55 | 1011.4 |
| 20260502065837 | 51 | 227 | 12.0 | 19.0 | 0.00 | 0.00 | 0.00 | 55 | 1011.3 |
| 20260502065739 | 51 | 284 | 11.0 | 17.0 | 0.00 | 0.00 | 0.00 | 55 | 1011.3 |
| 20260502065656 | 51 | 301 | 11.0 | 17.0 | 0.00 | 0.00 | 0.00 | 54 | 1011.3 |
| 20260502065533 | 51 | 219 | 9.0 | 17.0 | 0.00 | 0.00 | 0.00 | 54 | 1011.3 |
| 20260502065431 | 51 | 311 | 7.0 | 17.0 | 0.00 | 0.00 | 0.00 | 55 | 1011.3 |
| 20260502065329 | 51 | 174 | 5.0 | 17.0 | 0.00 | 0.00 | 0.00 | 54 | 1011.3 |
| 20260502065228 | 51 | 332 | 12.0 | 17.0 | 0.00 | 0.00 | 0.00 | 54 | 1011.3 |
| 20260502065150 | 51 | 73 | 12.0 | 17.0 | 0.00 | 0.00 | 0.00 | 53 | 1011.3 |
| 20260502065047 | 51 | 315 | 11.0 | 19.0 | 0.00 | 0.00 | 0.00 | 54 | 1011.3 |
| 20260502064929 | 51 | 305 | 9.0 | 19.0 | 0.00 | 0.00 | 0.00 | 53 | 1011.3 |
| 20260502064826 | 51 | 209 | 9.0 | 19.0 | 0.00 | 0.00 | 0.00 | 54 | 1011.3 |
| 20260502064735 | 51 | 128 | 11.0 | 19.0 | 0.00 | 0.00 | 0.00 | 53 | 1011.3 |
| 20260502064645 | 51 | 308 | 10.0 | 19.0 | 0.00 | 0.00 | 0.00 | 54 | 1011.3 |
| 20260502064542 | 51 | 168 | 11.0 | 19.0 | 0.00 | 0.00 | 0.00 | 54 | 1011.3 |
| 20260502064441 | 51 | 339 | 10.0 | 19.0 | 0.00 | 0.00 | 0.00 | 55 | 1011.3 |
| 20260502064338 | 51 | 54 | 5.0 | 19.0 | 0.00 | 0.00 | 0.00 | 54 | 1011.4 |
| 20260502064235 | 51 | 308 | 12.0 | 19.0 | 0.00 | 0.00 | 0.00 | 55 | 1011.4 |
| 20260502064140 | 51 | 309 | 10.0 | 19.0 | 0.00 | 0.00 | 0.00 | 55 | 1011.4 |
| 20260502064039 | 51 | 309 | 10.0 | 19.0 | 0.00 | 0.00 | 0.00 | 55 | 1011.4 |
| 20260502063937 | 51 | 282 | 11.0 | 18.0 | 0.00 | 0.00 | 0.00 | 55 | 1011.4 |
| 20260502063834 | 51 | 292 | 8.0 | 19.0 | 0.00 | 0.00 | 0.00 | 54 | 1011.4 |
| 20260502063734 | 51 | 332 | 8.0 | 19.0 | 0.00 | 0.00 | 0.00 | 53 | 1011.4 |
| 20260502063652 | 51 | 330 | 13.0 | 19.0 | 0.00 | 0.00 | 0.00 | 54 | 1011.4 |
| 20260502063530 | 51 | 253 | 12.0 | 19.0 | 0.00 | 0.00 | 0.00 | 54 | 1011.4 |
| 20260502063432 | 51 | 200 | 12.0 | 19.0 | 0.00 | 0.00 | 0.00 | 53 | 1011.4 |
| 20260502063349 | 51 | 313 | 8.0 | 19.0 | 0.00 | 0.00 | 0.00 | 54 | 1011.4 |
| 20260502063228 | 51 | 184 | 10.0 | 19.0 | 0.00 | 0.00 | 0.00 | 53 | 1011.4 |
| 20260502063158 | 51 | 289 | 9.0 | 19.0 | 0.00 | 0.00 | 0.00 | 52 | 1011.4 |
| 20260502063035 | 51 | 247 | 12.0 | 19.0 | 0.00 | 0.00 | 0.00 | 52 | 1011.4 |
| 20260502062932 | 51 | 271 | 11.0 | 19.0 | 0.00 | 0.00 | 0.00 | 52 | 1011.4 |
| 20260502062830 | 51 | 209 | 9.0 | 17.0 | 0.00 | 0.00 | 0.00 | 52 | 1011.6 |
| 20260502062734 | 51 | 328 | 10.0 | 17.0 | 0.00 | 0.00 | 0.00 | 53 | 1011.6 |
| 20260502062633 | 51 | 243 | 10.0 | 20.0 | 0.00 | 0.00 | 0.00 | 53 | 1011.6 |
| 20260502062530 | 51 | 246 | 12.0 | 20.0 | 0.00 | 0.00 | 0.00 | 53 | 1011.6 |
| 20260502062448 | 51 | 274 | 8.0 | 20.0 | 0.00 | 0.00 | 0.00 | 53 | 1011.6 |
| 20260502062328 | 51 | 250 | 9.0 | 20.0 | 0.00 | 0.00 | 0.00 | 52 | 1011.6 |
| 20260502062225 | 51 | 330 | 11.0 | 20.0 | 0.00 | 0.00 | 0.00 | 52 | 1011.6 |
| 20260502062146 | 51 | 127 | 12.0 | 20.0 | 0.00 | 0.00 | 0.00 | 52 | 1011.6 |
| 20260502062104 | 51 | 359 | 13.0 | 20.0 | 0.00 | 0.00 | 0.00 | 51 | 1011.6 |
| 20260502061940 | 52 | 143 | 13.0 | 20.0 | 0.00 | 0.00 | 0.00 | 51 | 1011.6 |
| 20260502061858 | 52 | 232 | 14.0 | 20.0 | 0.00 | 0.00 | 0.00 | 51 | 1011.6 |
| 20260502061739 | 52 | 265 | 16.0 | 20.0 | 0.00 | 0.00 | 0.00 | 52 | 1011.6 |
| 20260502061710 | 52 | 246 | 13.0 | 19.0 | 0.00 | 0.00 | 0.00 | 52 | 1011.6 |
| 20260502061526 | 52 | 181 | 9.0 | 18.0 | 0.00 | 0.00 | 0.00 | 51 | 1011.6 |
| 20260502061423 | 52 | 330 | 9.0 | 18.0 | 0.00 | 0.00 | 0.00 | 51 | 1011.6 |
| 20260502061326 | 52 | 199 | 13.0 | 18.0 | 0.00 | 0.00 | 0.00 | 51 | 1011.4 |
| 20260502061243 | 52 | 167 | 8.0 | 17.0 | 0.00 | 0.00 | 0.00 | 52 | 1011.4 |
| 20260502061202 | 52 | 73 | 7.0 | 17.0 | 0.00 | 0.00 | 0.00 | 52 | 1011.4 |
| 20260502061042 | 52 | 136 | 8.0 | 17.0 | 0.00 | 0.00 | 0.00 | 50 | 1011.4 |
| 20260502060943 | 52 | 270 | 8.0 | 19.0 | 0.00 | 0.00 | 0.00 | 52 | 1011.4 |
| 20260502060842 | 52 | 175 | 11.0 | 19.0 | 0.00 | 0.00 | 0.00 | 50 | 1011.4 |
| 20260502060740 | 52 | 244 | 13.0 | 19.0 | 0.00 | 0.00 | 0.00 | 51 | 1011.4 |
| 20260502060639 | 52 | 287 | 9.0 | 20.0 | 0.00 | 0.00 | 0.00 | 51 | 1011.4 |
| 20260502060537 | 52 | 329 | 10.0 | 20.0 | 0.00 | 0.00 | 0.00 | 52 | 1011.4 |
| 20260502060456 | 52 | 232 | 12.0 | 20.0 | 0.00 | 0.00 | 0.00 | 51 | 1011.4 |
| 20260502060333 | 52 | 270 | 12.0 | 20.0 | 0.00 | 0.00 | 0.00 | 50 | 1011.4 |
| 20260502060304 | 52 | 109 | 12.0 | 20.0 | 0.00 | 0.00 | 0.00 | 50 | 1011.4 |
| 20260502060156 | 52 | 289 | 13.0 | 20.0 | 0.00 | 0.00 | 0.00 | 50 | 1011.4 |
| 20260502060036 | 52 | 224 | 8.0 | 20.0 | 0.00 | 0.00 | 0.00 | 50 | 1011.4 |
| 20260502055934 | 52 | 253 | 8.0 | 20.0 | 0.00 | 0.00 | 0.00 | 50 | 1011.4 |
| 20260502055851 | 52 | 244 | 9.0 | 20.0 | 0.00 | 0.00 | 0.00 | 50 | 1011.2 |
| 20260502055729 | 52 | 330 | 12.0 | 20.0 | 0.00 | 0.00 | 0.00 | 50 | 1011.2 |
| 20260502055628 | 52 | 301 | 7.0 | 18.0 | 0.00 | 0.00 | 0.00 | 50 | 1011.2 |
| 20260502055547 | 52 | 333 | 10.0 | 18.0 | 0.00 | 0.00 | 0.00 | 49 | 1011.2 |
| 20260502055447 | 52 | 274 | 12.0 | 18.0 | 0.00 | 0.00 | 0.00 | 49 | 1011.2 |
| 20260502055328 | 52 | 234 | 13.0 | 18.0 | 0.00 | 0.00 | 0.00 | 50 | 1011.2 |
| 20260502055227 | 52 | 312 | 10.0 | 18.0 | 0.00 | 0.00 | 0.00 | 51 | 1011.2 |
| 20260502055127 | 52 | 178 | 11.0 | 18.0 | 0.00 | 0.00 | 0.00 | 50 | 1011.2 |
| 20260502055025 | 52 | 216 | 11.0 | 18.0 | 0.00 | 0.00 | 0.00 | 50 | 1011.2 |
| 20260502054924 | 52 | 49 | 10.0 | 18.0 | 0.00 | 0.00 | 0.00 | 51 | 1011.2 |
| 20260502054823 | 52 | 185 | 7.0 | 22.0 | 0.00 | 0.00 | 0.00 | 51 | 1011.2 |
| 20260502054735 | 52 | 165 | 5.0 | 22.0 | 0.00 | 0.00 | 0.00 | 51 | 1011.2 |
| 20260502054645 | 52 | 274 | 12.0 | 22.0 | 0.00 | 0.00 | 0.00 | 50 | 1011.2 |
| 20260502054526 | 52 | 319 | 11.0 | 22.0 | 0.00 | 0.00 | 0.00 | 50 | 1011.2 |
| 20260502054444 | 52 | 298 | 9.0 | 22.0 | 0.00 | 0.00 | 0.00 | 50 | 1011.2 |
| 20260502054342 | 52 | 313 | 12.0 | 22.0 | 0.00 | 0.00 | 0.00 | 50 | 1011.1 |
| 20260502054242 | 52 | 243 | 11.0 | 22.0 | 0.00 | 0.00 | 0.00 | 50 | 1011.1 |
| 20260502054200 | 52 | 320 | 9.0 | 22.0 | 0.00 | 0.00 | 0.00 | 51 | 1011.1 |
| 20260502054038 | 52 | 229 | 12.0 | 22.0 | 0.00 | 0.00 | 0.00 | 50 | 1011.1 |
| 20260502053936 | 52 | 281 | 10.0 | 22.0 | 0.00 | 0.00 | 0.00 | 50 | 1011.1 |
| 20260502053837 | 52 | 319 | 10.0 | 22.0 | 0.00 | 0.00 | 0.00 | 50 | 1011.1 |
| 20260502053756 | 52 | 305 | 12.0 | 22.0 | 0.00 | 0.00 | 0.00 | 49 | 1011.1 |
| 20260502053633 | 52 | 226 | 16.0 | 22.0 | 0.00 | 0.00 | 0.00 | 50 | 1011.1 |
| 20260502053530 | 52 | 332 | 8.0 | 20.0 | 0.00 | 0.00 | 0.00 | 49 | 1011.1 |
| 20260502053429 | 52 | 263 | 8.0 | 20.0 | 0.00 | 0.00 | 0.00 | 49 | 1011.1 |
| 20260502053328 | 52 | 217 | 14.0 | 20.0 | 0.00 | 0.00 | 0.00 | 50 | 1011.1 |
| 20260502053238 | 52 | 251 | 11.0 | 20.0 | 0.00 | 0.00 | 0.00 | 48 | 1011.1 |
| 20260502053147 | 52 | 318 | 11.0 | 20.0 | 0.00 | 0.00 | 0.00 | 48 | 1011.1 |
| 20260502053029 | 52 | 332 | 12.0 | 20.0 | 0.00 | 0.00 | 0.00 | 49 | 1011.1 |
| 20260502052947 | 53 | 45 | 10.0 | 20.0 | 0.00 | 0.00 | 0.00 | 49 | 1011.1 |
| 20260502052905 | 53 | 311 | 11.0 | 20.0 | 0.00 | 0.00 | 0.00 | 49 | 1011.3 |
| 20260502052742 | 53 | 188 | 14.0 | 20.0 | 0.00 | 0.00 | 0.00 | 49 | 1011.3 |
| 20260502052641 | 53 | 311 | 10.0 | 19.0 | 0.00 | 0.00 | 0.00 | 49 | 1011.3 |
| 20260502052538 | 53 | 227 | 11.0 | 20.0 | 0.00 | 0.00 | 0.00 | 49 | 1011.3 |
| 20260502052437 | 53 | 335 | 10.0 | 20.0 | 0.00 | 0.00 | 0.00 | 50 | 1011.3 |
| 20260502052355 | 53 | 241 | 8.0 | 20.0 | 0.00 | 0.00 | 0.00 | 49 | 1011.3 |
| 20260502052238 | 53 | 158 | 7.0 | 20.0 | 0.00 | 0.00 | 0.00 | 49 | 1011.3 |
| 20260502052157 | 53 | 230 | 8.0 | 20.0 | 0.00 | 0.00 | 0.00 | 48 | 1011.3 |
| 20260502052033 | 53 | 199 | 9.0 | 20.0 | 0.00 | 0.00 | 0.00 | 48 | 1011.3 |
| 20260502051934 | 53 | 289 | 7.0 | 20.0 | 0.00 | 0.00 | 0.00 | 47 | 1011.3 |
| 20260502051832 | 53 | 48 | 14.0 | 20.0 | 0.00 | 0.00 | 0.00 | 48 | 1011.3 |
| 20260502051741 | 53 | 326 | 16.0 | 20.0 | 0.00 | 0.00 | 0.00 | 47 | 1011.3 |
| 20260502051649 | 53 | 176 | 13.0 | 20.0 | 0.00 | 0.00 | 0.00 | 49 | 1011.3 |
| 20260502051527 | 53 | 64 | 10.0 | 18.0 | 0.00 | 0.00 | 0.00 | 48 | 1011.3 |
| 20260502051429 | 53 | 226 | 10.0 | 18.0 | 0.00 | 0.00 | 0.00 | 47 | 1011.3 |
| 20260502051328 | 53 | 110 | 8.0 | 18.0 | 0.00 | 0.00 | 0.00 | 47 | 1011.1 |
| 20260502051225 | 53 | 145 | 10.0 | 18.0 | 0.00 | 0.00 | 0.00 | 49 | 1011.1 |
| 20260502051123 | 53 | 333 | 8.0 | 18.0 | 0.00 | 0.00 | 0.00 | 49 | 1011.1 |
| 20260502051024 | 53 | 265 | 11.0 | 18.0 | 0.00 | 0.00 | 0.00 | 49 | 1011.1 |
| 20260502050943 | 53 | 175 | 9.0 | 18.0 | 0.00 | 0.00 | 0.00 | 50 | 1011.1 |
| 20260502050841 | 53 | 304 | 10.0 | 17.0 | 0.00 | 0.00 | 0.00 | 48 | 1011.1 |
| 20260502050759 | 53 | 195 | 8.0 | 17.0 | 0.00 | 0.00 | 0.00 | 48 | 1011.1 |
| 20260502050659 | 53 | 191 | 7.0 | 17.0 | 0.00 | 0.00 | 0.00 | 48 | 1011.1 |
| 20260502050537 | 53 | 289 | 10.0 | 21.0 | 0.00 | 0.00 | 0.00 | 48 | 1011.1 |
| 20260502050435 | 53 | 61 | 8.0 | 21.0 | 0.00 | 0.00 | 0.00 | 48 | 1011.1 |
| 20260502050335 | 53 | 160 | 8.0 | 21.0 | 0.00 | 0.00 | 0.00 | 48 | 1011.1 |
| 20260502050244 | 53 | 157 | 9.0 | 21.0 | 0.00 | 0.00 | 0.00 | 48 | 1011.1 |
| 20260502050154 | 53 | 332 | 5.0 | 21.0 | 0.00 | 0.00 | 0.00 | 49 | 1011.1 |
| 20260502050050 | 53 | 109 | 8.0 | 21.0 | 0.00 | 0.00 | 0.00 | 47 | 1011.1 |
| 20260502045946 | 53 | 248 | 8.0 | 21.0 | 0.00 | 0.00 | 0.00 | 47 | 1011.1 |
| 20260502045827 | 53 | 278 | 12.0 | 21.0 | 0.00 | 0.00 | 0.00 | 47 | 1010.9 |
| 20260502045745 | 53 | 248 | 15.0 | 21.0 | 0.00 | 0.00 | 0.00 | 47 | 1010.9 |
| 20260502045704 | 53 | 296 | 12.0 | 20.0 | 0.00 | 0.00 | 0.00 | 47 | 1010.9 |
| 20260502045540 | 53 | 335 | 13.0 | 20.0 | 0.00 | 0.00 | 0.00 | 47 | 1010.9 |
| 20260502045458 | 53 | 271 | 14.0 | 20.0 | 0.00 | 0.00 | 0.00 | 47 | 1010.9 |
| 20260502045335 | 53 | 240 | 13.0 | 20.0 | 0.00 | 0.00 | 0.00 | 47 | 1010.9 |
| 20260502045233 | 53 | 233 | 11.0 | 19.0 | 0.00 | 0.00 | 0.00 | 47 | 1010.9 |
| 20260502045130 | 53 | 200 | 12.0 | 19.0 | 0.00 | 0.00 | 0.00 | 48 | 1010.9 |
| 20260502045034 | 53 | 277 | 9.0 | 17.0 | 0.00 | 0.00 | 0.00 | 48 | 1010.9 |
| 20260502044933 | 53 | 320 | 8.0 | 17.0 | 0.00 | 0.00 | 0.00 | 48 | 1010.9 |
| 20260502044831 | 53 | 322 | 11.0 | 17.0 | 0.00 | 0.00 | 0.00 | 48 | 1010.9 |
| 20260502044748 | 53 | 126 | 12.0 | 16.0 | 0.00 | 0.00 | 0.00 | 48 | 1010.9 |
| 20260502044658 | 53 | 240 | 10.0 | 17.0 | 0.00 | 0.00 | 0.00 | 49 | 1010.9 |
| 20260502044535 | 53 | 229 | 7.0 | 22.0 | 0.00 | 0.00 | 0.00 | 49 | 1010.9 |
| 20260502044433 | 53 | 329 | 7.0 | 22.0 | 0.00 | 0.00 | 0.00 | 49 | 1010.9 |
| 20260502044331 | 53 | 322 | 9.0 | 22.0 | 0.00 | 0.00 | 0.00 | 49 | 1010.9 |
| 20260502044254 | 53 | 278 | 7.0 | 22.0 | 0.00 | 0.00 | 0.00 | 49 | 1010.9 |
| 20260502044132 | 53 | 145 | 7.0 | 22.0 | 0.00 | 0.00 | 0.00 | 48 | 1010.9 |
| 20260502044030 | 53 | 229 | 9.0 | 22.0 | 0.00 | 0.00 | 0.00 | 50 | 1010.9 |
| 20260502043928 | 53 | 106 | 10.0 | 22.0 | 0.00 | 0.00 | 0.00 | 50 | 1010.9 |
| 20260502043827 | 53 | 260 | 10.0 | 22.0 | 0.00 | 0.00 | 0.00 | 50 | 1010.9 |
| 20260502043725 | 53 | 208 | 11.0 | 22.0 | 0.00 | 0.00 | 0.00 | 49 | 1010.9 |
| 20260502043643 | 53 | 292 | 12.0 | 22.0 | 0.00 | 0.00 | 0.00 | 49 | 1010.9 |
| 20260502043601 | 53 | 253 | 10.0 | 19.0 | 0.00 | 0.00 | 0.00 | 49 | 1010.9 |
| 20260502043442 | 53 | 313 | 8.0 | 19.0 | 0.00 | 0.00 | 0.00 | 49 | 1010.9 |
| 20260502043341 | 53 | 287 | 9.0 | 19.0 | 0.00 | 0.00 | 0.00 | 48 | 1010.9 |
| 20260502043259 | 53 | 247 | 9.0 | 19.0 | 0.00 | 0.00 | 0.00 | 47 | 1010.9 |
| 20260502043211 | 53 | 311 | 12.0 | 19.0 | 0.00 | 0.00 | 0.00 | 47 | 1010.9 |
| 20260502043108 | 54 | 291 | 13.0 | 19.0 | 0.00 | 0.00 | 0.00 | 49 | 1010.9 |
| 20260502043006 | 54 | 92 | 10.0 | 20.0 | 0.00 | 0.00 | 0.00 | 49 | 1010.9 |
| 20260502042902 | 54 | 147 | 10.0 | 20.0 | 0.00 | 0.00 | 0.00 | 50 | 1011.0 |
| 20260502042740 | 54 | 131 | 14.0 | 20.0 | 0.00 | 0.00 | 0.00 | 50 | 1011.0 |
| 20260502042659 | 54 | 229 | 11.0 | 20.0 | 0.00 | 0.00 | 0.00 | 50 | 1011.0 |
| 20260502042600 | 54 | 299 | 6.0 | 20.0 | 0.00 | 0.00 | 0.00 | 49 | 1011.0 |
| 20260502042440 | 54 | 265 | 9.0 | 20.0 | 0.00 | 0.00 | 0.00 | 48 | 1011.0 |
| 20260502042337 | 54 | 299 | 8.0 | 20.0 | 0.00 | 0.00 | 0.00 | 49 | 1011.0 |
| 20260502042236 | 54 | 281 | 11.0 | 20.0 | 0.00 | 0.00 | 0.00 | 49 | 1011.0 |
| 20260502042154 | 54 | 301 | 14.0 | 20.0 | 0.00 | 0.00 | 0.00 | 51 | 1011.0 |
| 20260502042035 | 54 | 260 | 15.0 | 19.0 | 0.00 | 0.00 | 0.00 | 49 | 1011.0 |
| 20260502041932 | 54 | 275 | 9.0 | 17.0 | 0.00 | 0.00 | 0.00 | 50 | 1011.0 |
| 20260502041832 | 54 | 316 | 10.0 | 17.0 | 0.00 | 0.00 | 0.00 | 50 | 1011.0 |
| 20260502041802 | 54 | 304 | 9.0 | 17.0 | 0.00 | 0.00 | 0.00 | 50 | 1011.0 |
| 20260502041653 | 54 | 296 | 7.0 | 19.0 | 0.00 | 0.00 | 0.00 | 50 | 1011.0 |
| 20260502041531 | 54 | 253 | 11.0 | 19.0 | 0.00 | 0.00 | 0.00 | 50 | 1011.0 |
| 20260502041428 | 54 | 261 | 7.0 | 19.0 | 0.00 | 0.00 | 0.00 | 50 | 1011.0 |
| 20260502041347 | 54 | 254 | 5.0 | 19.0 | 0.00 | 0.00 | 0.00 | 51 | 1011.1 |
| 20260502041228 | 54 | 295 | 8.0 | 19.0 | 0.00 | 0.00 | 0.00 | 51 | 1011.1 |
| 20260502041145 | 54 | 147 | 10.0 | 19.0 | 0.00 | 0.00 | 0.00 | 51 | 1011.1 |
| 20260502041104 | 54 | 206 | 9.0 | 19.0 | 0.00 | 0.00 | 0.00 | 51 | 1011.1 |
| 20260502041002 | 54 | 167 | 8.0 | 19.0 | 0.00 | 0.00 | 0.00 | 51 | 1011.1 |
| 20260502040840 | 54 | 99 | 6.0 | 19.0 | 0.00 | 0.00 | 0.00 | 51 | 1011.1 |
| 20260502040724 | 54 | 268 | 10.0 | 19.0 | 0.00 | 0.00 | 0.00 | 51 | 1011.1 |
| 20260502040642 | 54 | 294 | 9.0 | 17.0 | 0.00 | 0.00 | 0.00 | 51 | 1011.1 |
| 20260502040541 | 54 | 329 | 12.0 | 17.0 | 0.00 | 0.00 | 0.00 | 50 | 1011.1 |
| 20260502040438 | 54 | 203 | 11.0 | 17.0 | 0.00 | 0.00 | 0.00 | 50 | 1011.1 |
| 20260502040336 | 54 | 52 | 9.0 | 17.0 | 0.00 | 0.00 | 0.00 | 50 | 1011.1 |
| 20260502040253 | 54 | 326 | 12.0 | 17.0 | 0.00 | 0.00 | 0.00 | 50 | 1011.1 |
| 20260502040225 | 54 | 253 | 9.0 | 20.0 | 0.00 | 0.00 | 0.00 | 50 | 1011.1 |
| 20260502040041 | 54 | 93 | 8.0 | 20.0 | 0.00 | 0.00 | 0.00 | 50 | 1011.1 |
| 20260502035942 | 54 | 354 | 12.0 | 20.0 | 0.00 | 0.00 | 0.00 | 50 | 1011.1 |
| 20260502035901 | 54 | 316 | 11.0 | 20.0 | 0.00 | 0.00 | 0.00 | 50 | 1011.0 |
| 20260502035758 | 54 | 296 | 9.0 | 20.0 | 0.00 | 0.00 | 0.00 | 51 | 1011.0 |
| 20260502035635 | 54 | 284 | 9.0 | 20.0 | 0.00 | 0.00 | 0.00 | 50 | 1011.0 |
| 20260502035534 | 54 | 199 | 7.0 | 20.0 | 0.00 | 0.00 | 0.00 | 50 | 1011.0 |
| 20260502035433 | 54 | 330 | 10.0 | 20.0 | 0.00 | 0.00 | 0.00 | 49 | 1011.0 |
| 20260502035330 | 54 | 167 | 12.0 | 20.0 | 0.00 | 0.00 | 0.00 | 49 | 1011.0 |
| 20260502035230 | 54 | 200 | 11.0 | 20.0 | 0.00 | 0.00 | 0.00 | 50 | 1011.0 |
| 20260502035133 | 54 | 209 | 10.0 | 16.0 | 0.00 | 0.00 | 0.00 | 50 | 1011.0 |
| 20260502035031 | 54 | 288 | 10.0 | 16.0 | 0.00 | 0.00 | 0.00 | 50 | 1011.0 |
| 20260502034930 | 54 | 305 | 10.0 | 16.0 | 0.00 | 0.00 | 0.00 | 50 | 1011.0 |
| 20260502034827 | 54 | 103 | 10.0 | 16.0 | 0.00 | 0.00 | 0.00 | 50 | 1011.0 |
| 20260502034738 | 54 | 128 | 7.0 | 14.0 | 0.00 | 0.00 | 0.00 | 51 | 1011.0 |
| 20260502034647 | 54 | 332 | 6.0 | 14.0 | 0.00 | 0.00 | 0.00 | 52 | 1011.0 |
| 20260502034545 | 54 | 335 | 9.0 | 14.0 | 0.00 | 0.00 | 0.00 | 52 | 1011.0 |
| 20260502034503 | 54 | 296 | 7.0 | 14.0 | 0.00 | 0.00 | 0.00 | 51 | 1011.0 |
| 20260502034405 | 54 | 178 | 8.0 | 14.0 | 0.00 | 0.00 | 0.00 | 51 | 1011.2 |
| 20260502034242 | 55 | 178 | 9.0 | 14.0 | 0.00 | 0.00 | 0.00 | 51 | 1011.2 |
| 20260502034141 | 55 | 212 | 10.0 | 14.0 | 0.00 | 0.00 | 0.00 | 52 | 1011.2 |
| 20260502034038 | 55 | 209 | 11.0 | 14.0 | 0.00 | 0.00 | 0.00 | 51 | 1011.2 |
| 20260502033935 | 55 | 220 | 9.0 | 14.0 | 0.00 | 0.00 | 0.00 | 51 | 1011.2 |
| 20260502033834 | 55 | 313 | 8.0 | 14.0 | 0.00 | 0.00 | 0.00 | 51 | 1011.2 |
| 20260502033731 | 55 | 216 | 8.0 | 14.0 | 0.00 | 0.00 | 0.00 | 51 | 1011.2 |
| 20260502033653 | 55 | 280 | 5.0 | 14.0 | 0.00 | 0.00 | 0.00 | 51 | 1011.2 |
| 20260502033529 | 55 | 287 | 7.0 | 16.0 | 0.00 | 0.00 | 0.00 | 52 | 1011.2 |
| 20260502033425 | 55 | 301 | 9.0 | 16.0 | 0.00 | 0.00 | 0.00 | 54 | 1011.2 |
| 20260502033343 | 55 | 232 | 7.0 | 16.0 | 0.00 | 0.00 | 0.00 | 54 | 1011.2 |
| 20260502033241 | 55 | 179 | 7.0 | 16.0 | 0.00 | 0.00 | 0.00 | 54 | 1011.2 |
| 20260502033212 | 55 | 58 | 10.0 | 16.0 | 0.00 | 0.00 | 0.00 | 54 | 1011.2 |
| 20260502033027 | 55 | 155 | 5.0 | 16.0 | 0.00 | 0.00 | 0.00 | 53 | 1011.2 |
| 20260502032926 | 55 | 305 | 9.0 | 16.0 | 0.00 | 0.00 | 0.00 | 53 | 1011.2 |
| 20260502032844 | 55 | 285 | 10.0 | 16.0 | 0.00 | 0.00 | 0.00 | 53 | 1011.6 |
| 20260502032726 | 55 | 76 | 11.0 | 17.0 | 0.00 | 0.00 | 0.00 | 54 | 1011.6 |
| 20260502032644 | 55 | 206 | 8.0 | 17.0 | 0.00 | 0.00 | 0.00 | 54 | 1011.6 |
| 20260502032542 | 55 | 280 | 7.0 | 17.0 | 0.00 | 0.00 | 0.00 | 55 | 1011.6 |
| 20260502032439 | 55 | 332 | 9.0 | 17.0 | 0.00 | 0.00 | 0.00 | 53 | 1011.6 |
| 20260502032338 | 55 | 79 | 10.0 | 17.0 | 0.00 | 0.00 | 0.00 | 53 | 1011.6 |
| 20260502032256 | 55 | 353 | 10.0 | 17.0 | 0.00 | 0.00 | 0.00 | 53 | 1011.6 |
| 20260502032133 | 55 | 134 | 5.0 | 17.0 | 0.00 | 0.00 | 0.00 | 53 | 1011.6 |
| 20260502032031 | 55 | 294 | 6.0 | 17.0 | 0.00 | 0.00 | 0.00 | 53 | 1011.6 |
| 20260502031933 | 55 | 325 | 12.0 | 17.0 | 0.00 | 0.00 | 0.00 | 53 | 1011.6 |
| 20260502031852 | 55 | 175 | 11.0 | 17.0 | 0.00 | 0.00 | 0.00 | 55 | 1011.6 |
| 20260502031741 | 55 | 246 | 10.0 | 17.0 | 0.00 | 0.00 | 0.00 | 55 | 1011.6 |
| 20260502031649 | 55 | 328 | 9.0 | 17.0 | 0.00 | 0.00 | 0.00 | 55 | 1011.6 |
| 20260502031526 | 55 | 326 | 8.0 | 17.0 | 0.00 | 0.00 | 0.00 | 56 | 1011.6 |
| 20260502031426 | 55 | 333 | 7.0 | 17.0 | 0.00 | 0.00 | 0.00 | 56 | 1011.6 |
| 20260502031324 | 55 | 332 | 7.0 | 18.0 | 0.00 | 0.00 | 0.00 | 56 | 1011.7 |
| 20260502031243 | 55 | 134 | 8.0 | 18.0 | 0.00 | 0.00 | 0.00 | 56 | 1011.7 |
| 20260502031140 | 55 | 239 | 8.0 | 18.0 | 0.00 | 0.00 | 0.00 | 56 | 1011.7 |
| 20260502031103 | 55 | 329 | 8.0 | 18.0 | 0.00 | 0.00 | 0.00 | 56 | 1011.7 |
| 20260502030940 | 55 | 243 | 7.0 | 18.0 | 0.00 | 0.00 | 0.00 | 56 | 1011.7 |
| 20260502030839 | 55 | 318 | 4.0 | 18.0 | 0.00 | 0.00 | 0.00 | 55 | 1011.7 |
| 20260502030737 | 55 | 239 | 8.0 | 18.0 | 0.00 | 0.00 | 0.00 | 55 | 1011.7 |
| 20260502030634 | 55 | 330 | 10.0 | 18.0 | 0.00 | 0.00 | 0.00 | 56 | 1011.7 |
| 20260502030532 | 56 | 246 | 10.0 | 18.0 | 0.00 | 0.00 | 0.00 | 57 | 1011.7 |
| 20260502030430 | 56 | 176 | 8.0 | 18.0 | 0.00 | 0.00 | 0.00 | 57 | 1011.7 |
| 20260502030333 | 56 | 350 | 9.0 | 18.0 | 0.00 | 0.00 | 0.00 | 57 | 1011.7 |
| 20260502030244 | 56 | 292 | 5.0 | 18.0 | 0.00 | 0.00 | 0.00 | 56 | 1011.7 |
| 20260502030153 | 56 | 313 | 6.0 | 18.0 | 0.00 | 0.00 | 0.00 | 56 | 1011.7 |
| 20260502030030 | 56 | 265 | 4.0 | 18.0 | 0.00 | 0.00 | 0.00 | 56 | 1011.7 |
| 20260502025948 | 56 | 304 | 10.0 | 18.0 | 0.00 | 0.00 | 0.00 | 57 | 1011.7 |
| 20260502025845 | 56 | 325 | 10.0 | 18.0 | 0.00 | 0.00 | 0.00 | 57 | 1011.7 |
| 20260502025803 | 56 | 167 | 9.0 | 18.0 | 0.00 | 0.00 | 0.00 | 57 | 1011.7 |
| 20260502025641 | 56 | 280 | 10.0 | 18.0 | 0.00 | 0.00 | 0.00 | 57 | 1011.7 |
| 20260502025543 | 56 | 56 | 3.0 | 12.0 | 0.00 | 0.00 | 0.00 | 57 | 1011.7 |
| 20260502025441 | 56 | 325 | 6.0 | 15.0 | 0.00 | 0.00 | 0.00 | 57 | 1011.7 |
| 20260502025340 | 56 | 339 | 6.0 | 15.0 | 0.00 | 0.00 | 0.00 | 57 | 1011.7 |
| 20260502025238 | 56 | 333 | 7.0 | 15.0 | 0.00 | 0.00 | 0.00 | 57 | 1011.7 |
| 20260502025137 | 56 | 274 | 9.0 | 15.0 | 0.00 | 0.00 | 0.00 | 57 | 1011.7 |
| 20260502025036 | 56 | 360 | 7.0 | 15.0 | 0.00 | 0.00 | 0.00 | 59 | 1011.7 |
| 20260502024953 | 56 | 332 | 4.0 | 15.0 | 0.00 | 0.00 | 0.00 | 59 | 1011.7 |
| 20260502024835 | 56 | 332 | 7.0 | 15.0 | 0.00 | 0.00 | 0.00 | 58 | 1011.7 |
| 20260502024755 | 56 | 330 | 8.0 | 15.0 | 0.00 | 0.00 | 0.00 | 58 | 1011.7 |
| 20260502024725 | 56 | 248 | 9.0 | 15.0 | 0.00 | 0.00 | 0.00 | 59 | 1011.7 |
| 20260502024542 | 56 | 244 | 5.0 | 18.0 | 0.00 | 0.00 | 0.00 | 59 | 1011.7 |
| 20260502024440 | 56 | 88 | 7.0 | 18.0 | 0.00 | 0.00 | 0.00 | 59 | 1011.7 |
| 20260502024337 | 56 | 329 | 5.0 | 18.0 | 0.00 | 0.00 | 0.00 | 59 | 1011.3 |
| 20260502024257 | 56 | 330 | 6.0 | 18.0 | 0.00 | 0.00 | 0.00 | 59 | 1011.3 |
| 20260502024135 | 56 | 354 | 7.0 | 18.0 | 0.00 | 0.00 | 0.00 | 59 | 1011.3 |
| 20260502024054 | 56 | 330 | 5.0 | 18.0 | 0.00 | 0.00 | 0.00 | 59 | 1011.3 |
| 20260502023938 | 56 | 289 | 7.0 | 18.0 | 0.00 | 0.00 | 0.00 | 58 | 1011.3 |
| 20260502023837 | 56 | 188 | 8.0 | 18.0 | 0.00 | 0.00 | 0.00 | 58 | 1011.3 |
| 20260502023736 | 56 | 332 | 10.0 | 18.0 | 0.00 | 0.00 | 0.00 | 59 | 1011.3 |
| 20260502023633 | 56 | 311 | 5.0 | 14.0 | 0.00 | 0.00 | 0.00 | 59 | 1011.3 |
| 20260502023552 | 56 | 154 | 8.0 | 14.0 | 0.00 | 0.00 | 0.00 | 59 | 1011.3 |
| 20260502023451 | 56 | 243 | 6.0 | 14.0 | 0.00 | 0.00 | 0.00 | 59 | 1011.3 |
| 20260502023333 | 56 | 192 | 8.0 | 14.0 | 0.00 | 0.00 | 0.00 | 58 | 1011.3 |
| 20260502023302 | 57 | 270 | 9.0 | 14.0 | 0.00 | 0.00 | 0.00 | 58 | 1011.3 |
| 20260502023154 | 57 | 256 | 10.0 | 14.0 | 0.00 | 0.00 | 0.00 | 59 | 1011.3 |
| 20260502023030 | 57 | 174 | 5.0 | 14.0 | 0.00 | 0.00 | 0.00 | 59 | 1011.3 |
| 20260502022929 | 57 | 333 | 10.0 | 14.0 | 0.00 | 0.00 | 0.00 | 59 | 1011.3 |
| 20260502022828 | 57 | 196 | 9.0 | 14.0 | 0.00 | 0.00 | 0.00 | 60 | 1011.1 |
| 20260502022725 | 57 | 357 | 4.0 | 13.0 | 0.00 | 0.00 | 0.00 | 60 | 1011.1 |
| 20260502022624 | 57 | 333 | 4.0 | 13.0 | 0.00 | 0.00 | 0.00 | 60 | 1011.1 |
| 20260502022542 | 57 | 335 | 5.0 | 13.0 | 0.00 | 0.00 | 0.00 | 59 | 1011.1 |
| 20260502022444 | 57 | 329 | 6.0 | 13.0 | 0.00 | 0.00 | 0.00 | 59 | 1011.1 |
| 20260502022402 | 57 | 59 | 7.0 | 14.0 | 0.00 | 0.00 | 0.00 | 59 | 1011.1 |
| 20260502022239 | 57 | 107 | 8.0 | 17.0 | 0.00 | 0.00 | 0.00 | 60 | 1011.1 |
| 20260502022138 | 57 | 162 | 7.0 | 17.0 | 0.00 | 0.00 | 0.00 | 59 | 1011.1 |
| 20260502022039 | 57 | 275 | 5.0 | 17.0 | 0.00 | 0.00 | 0.00 | 59 | 1011.1 |
| 20260502021938 | 57 | 168 | 5.0 | 17.0 | 0.00 | 0.00 | 0.00 | 59 | 1011.1 |
| 20260502021835 | 57 | 320 | 8.0 | 17.0 | 0.00 | 0.00 | 0.00 | 58 | 1011.1 |
| 20260502021738 | 57 | 330 | 8.0 | 17.0 | 0.00 | 0.00 | 0.00 | 59 | 1011.1 |
| 20260502021646 | 57 | 193 | 8.0 | 17.0 | 0.00 | 0.00 | 0.00 | 59 | 1011.1 |
| 20260502021543 | 57 | 212 | 8.0 | 17.0 | 0.00 | 0.00 | 0.00 | 60 | 1011.1 |
| 20260502021440 | 57 | 360 | 7.0 | 17.0 | 0.00 | 0.00 | 0.00 | 60 | 1011.1 |
| 20260502021342 | 57 | 306 | 7.0 | 17.0 | 0.00 | 0.00 | 0.00 | 60 | 1011.0 |
| 20260502021240 | 57 | 227 | 5.0 | 14.0 | 0.00 | 0.00 | 0.00 | 60 | 1011.0 |
| 20260502021138 | 57 | 330 | 7.0 | 14.0 | 0.00 | 0.00 | 0.00 | 60 | 1011.0 |
| 20260502021037 | 57 | 160 | 8.0 | 14.0 | 0.00 | 0.00 | 0.00 | 59 | 1011.0 |
| 20260502020939 | 57 | 54 | 7.0 | 14.0 | 0.00 | 0.00 | 0.00 | 61 | 1011.0 |
| 20260502020835 | 57 | 333 | 5.0 | 14.0 | 0.00 | 0.00 | 0.00 | 61 | 1011.0 |
| 20260502020733 | 57 | 148 | 7.0 | 14.0 | 0.00 | 0.00 | 0.00 | 60 | 1011.0 |
| 20260502020653 | 57 | 346 | 8.0 | 14.0 | 0.00 | 0.00 | 0.00 | 59 | 1011.0 |
| 20260502020531 | 57 | 206 | 9.0 | 14.0 | 0.00 | 0.00 | 0.00 | 59 | 1011.0 |
| 20260502020428 | 57 | 330 | 7.0 | 14.0 | 0.00 | 0.00 | 0.00 | 60 | 1011.0 |
| 20260502020328 | 57 | 343 | 4.0 | 14.0 | 0.00 | 0.00 | 0.00 | 60 | 1011.0 |
| 20260502020240 | 57 | 336 | 7.0 | 14.0 | 0.00 | 0.00 | 0.00 | 59 | 1011.0 |
| 20260502020151 | 57 | 51 | 9.0 | 14.0 | 0.00 | 0.00 | 0.00 | 59 | 1011.0 |
| 20260502020028 | 57 | 226 | 9.0 | 14.0 | 0.00 | 0.00 | 0.00 | 60 | 1011.0 |
| 20260502015946 | 57 | 34 | 7.0 | 14.0 | 0.00 | 0.00 | 0.00 | 61 | 1011.0 |
| 20260502015905 | 57 | 192 | 9.0 | 14.0 | 0.00 | 0.00 | 0.00 | 60 | 1010.8 |
| 20260502015735 | 58 | 346 | 8.0 | 14.0 | 0.00 | 0.00 | 0.00 | 59 | 1010.8 |
| 20260502015635 | 58 | 120 | 9.0 | 14.0 | 0.00 | 0.00 | 0.00 | 62 | 1010.8 |
| 20260502015532 | 58 | 145 | 9.0 | 14.0 | 0.00 | 0.00 | 0.00 | 61 | 1010.8 |
| 20260502015436 | 58 | 247 | 10.0 | 14.0 | 0.00 | 0.00 | 0.00 | 62 | 1010.8 |
| 20260502015334 | 58 | 83 | 2.0 | 14.0 | 0.00 | 0.00 | 0.00 | 62 | 1010.8 |
| 20260502015233 | 58 | 330 | 5.0 | 14.0 | 0.00 | 0.00 | 0.00 | 63 | 1010.8 |
| 20260502015152 | 58 | 328 | 7.0 | 14.0 | 0.00 | 0.00 | 0.00 | 64 | 1010.8 |
| 20260502015030 | 58 | 332 | 4.0 | 14.0 | 0.00 | 0.00 | 0.00 | 64 | 1010.8 |
| 20260502014928 | 58 | 356 | 3.0 | 14.0 | 0.00 | 0.00 | 0.00 | 63 | 1010.8 |
| 20260502014826 | 58 | 356 | 6.0 | 14.0 | 0.00 | 0.00 | 0.00 | 63 | 1010.8 |
| 20260502014730 | 58 | 325 | 4.0 | 12.0 | 0.00 | 0.00 | 0.00 | 64 | 1010.8 |
| 20260502014700 | 58 | 203 | 5.0 | 12.0 | 0.00 | 0.00 | 0.00 | 65 | 1010.8 |
| 20260502014535 | 58 | 174 | 5.0 | 12.0 | 0.00 | 0.00 | 0.00 | 65 | 1010.8 |
| 20260502014432 | 58 | 85 | 5.0 | 11.0 | 0.00 | 0.00 | 0.00 | 65 | 1010.8 |
| 20260502014331 | 58 | 260 | 5.0 | 11.0 | 0.00 | 0.00 | 0.00 | 65 | 1010.9 |
| 20260502014230 | 58 | 251 | 3.0 | 11.0 | 0.00 | 0.00 | 0.00 | 65 | 1010.9 |
| 20260502014128 | 58 | 151 | 6.0 | 11.0 | 0.00 | 0.00 | 0.00 | 66 | 1010.9 |
| 20260502014025 | 58 | 73 | 5.0 | 11.0 | 0.00 | 0.00 | 0.00 | 66 | 1010.9 |
| 20260502013931 | 58 | 124 | 4.0 | 11.0 | 0.00 | 0.00 | 0.00 | 66 | 1010.9 |
| 20260502013850 | 58 | 326 | 4.0 | 10.0 | 0.00 | 0.00 | 0.00 | 65 | 1010.9 |
| 20260502013729 | 58 | 332 | 5.0 | 8.0 | 0.00 | 0.00 | 0.00 | 65 | 1010.9 |
| 20260502013626 | 58 | 28 | 4.0 | 9.0 | 0.00 | 0.00 | 0.00 | 65 | 1010.9 |
| 20260502013524 | 58 | 14 | 4.0 | 9.0 | 0.00 | 0.00 | 0.00 | 65 | 1010.9 |